Time,TemperatureF,DewpointF,PressureIn,WindDirection,WindDirectionDegrees,WindSpeedMPH,WindSpeedGustMPH,Humidity,HourlyPrecipIn,Conditions,Clouds,dailyrainin,SoftwareType,DateUTC
2013-02-13 00:00:00,48.2,-6.0,29.94,North,11,0.0,0.0,10,0.00,CLR,,0.00,WeatherDisplay:10.37,2013-02-13 05:00:00,
2013-02-13 00:05:00,47.8,-4.3,29.94,North,11,0.0,0.0,11,0.00,CLR,,0.00,WeatherDisplay:10.37,2013-02-13 05:05:00,
2013-02-13 00:10:00,47.3,-1.2,29.94,North,11,0.0,0.0,13,0.00,CLR,,0.00,WeatherDisplay:10.37,2013-02-13 05:10:00,
2013-02-13 00:15:00,46.2,-2.0,29.93,North,11,0.0,0.0,13,0.00,CLR,,0.00,WeatherDisplay:10.37,2013-02-13 05:15:00,
2013-02-13 00:16:00,46.4,-1.9,29.93,North,11,0.0,0.0,13,0.00,CLR,,0.00,WeatherDisplay:10.37,2013-02-13 05:16:00,
2013-02-13 00:20:00,46.0,2.2,29.93,North,11,0.0,0.0,16,0.00,CLR,,0.00,WeatherDisplay:10.37,2013-02-13 05:20:00,
2013-02-13 00:21:00,46.0,2.2,29.94,North,11,0.0,0.0,16,0.00,CLR,,0.00,WeatherDisplay:10.37,2013-02-13 05:21:00,
2013-02-13 00:25:00,45.3,3.0,29.93,North,11,0.0,0.0,17,0.00,CLR,,0.00,WeatherDisplay:10.37,2013-02-13 05:25:00,
2013-02-13 00:26:00,45.4,4.3,29.93,North,11,0.0,0.0,18,0.00,CLR,,0.00,WeatherDisplay:10.37,2013-02-13 05:26:00,
2013-02-13 00:30:00,44.6,8.0,29.92,North,11,0.0,0.0,22,0.00,CLR,,0.00,WeatherDisplay:10.37,2013-02-13 05:30:00,
2013-02-13 00:31:00,44.5,8.9,29.92,North,11,0.0,0.0,23,0.00,CLR,,0.00,WeatherDisplay:10.37,2013-02-13 05:31:00,
2013-02-13 00:32:00,44.4,7.9,29.93,North,11,0.0,0.0,22,0.00,CLR,,0.00,WeatherDisplay:10.37,2013-02-13 05:32:00,
2013-02-13 00:35:00,44.0,10.4,29.93,North,11,0.0,0.0,25,0.00,CLR,,0.00,WeatherDisplay:10.37,2013-02-13 05:35:00,
2013-02-13 00:36:00,43.9,10.3,29.93,North,11,0.0,0.0,25,0.00,CLR,,0.00,WeatherDisplay:10.37,2013-02-13 05:36:00,
2013-02-13 00:37:00,43.5,9.0,29.92,North,11,0.0,0.0,24,0.00,CLR,,0.00,WeatherDisplay:10.37,2013-02-13 05:37:00,
2013-02-13 00:40:00,43.6,10.0,29.92,North,11,0.0,0.0,25,0.00,CLR,,0.00,WeatherDisplay:10.37,2013-02-13 05:40:00,
2013-02-13 00:41:00,43.6,10.0,29.92,North,11,0.0,0.0,25,0.00,CLR,,0.00,WeatherDisplay:10.37,2013-02-13 05:41:00,
2013-02-13 00:42:00,43.4,9.9,29.92,North,11,0.0,0.0,25,0.00,CLR,,0.00,WeatherDisplay:10.37,2013-02-13 05:42:00,
2013-02-13 00:45:00,43.4,8.0,29.91,North,11,0.0,0.0,23,0.00,CLR,,0.00,WeatherDisplay:10.37,2013-02-13 05:45:00,
2013-02-13 00:47:00,43.6,7.2,29.91,North,11,0.0,0.0,22,0.00,CLR,,0.00,WeatherDisplay:10.37,2013-02-13 05:47:00,
2013-02-13 00:50:00,43.9,6.4,29.91,North,11,0.0,0.0,21,0.00,CLR,,0.00,WeatherDisplay:10.37,2013-02-13 05:50:00,
2013-02-13 00:52:00,44.3,6.7,29.91,North,11,0.0,0.0,21,0.00,CLR,,0.00,WeatherDisplay:10.37,2013-02-13 05:52:00,
2013-02-13 00:55:00,44.6,4.8,29.90,North,11,0.0,0.0,19,0.00,CLR,,0.00,WeatherDisplay:10.37,2013-02-13 05:55:00,
2013-02-13 00:56:00,44.4,4.6,29.90,North,11,0.0,0.0,19,0.00,CLR,,0.00,WeatherDisplay:10.37,2013-02-13 05:56:00,
2013-02-13 00:57:00,44.3,6.7,29.90,North,11,0.0,0.0,21,0.00,CLR,,0.00,WeatherDisplay:10.37,2013-02-13 05:57:00,
2013-02-13 00:58:00,44.3,6.7,29.91,North,11,0.0,0.0,21,0.00,CLR,,0.00,WeatherDisplay:10.37,2013-02-13 05:58:00,
2013-02-13 01:01:00,44.6,4.8,29.91,North,11,0.0,0.0,19,0.00,CLR,,0.00,WeatherDisplay:10.37,2013-02-13 06:01:00,
2013-02-13 01:02:00,44.6,4.8,29.90,North,11,0.0,0.0,19,0.00,CLR,,0.00,WeatherDisplay:10.37,2013-02-13 06:02:00,
2013-02-13 01:03:00,44.6,3.6,29.90,North,11,0.0,0.0,18,0.00,CLR,,0.00,WeatherDisplay:10.37,2013-02-13 06:03:00,
2013-02-13 01:06:00,45.0,5.1,29.90,North,11,0.0,0.0,19,0.00,CLR,,0.00,WeatherDisplay:10.37,2013-02-13 06:06:00,
2013-02-13 01:07:00,44.7,3.7,29.90,North,11,0.0,0.0,18,0.00,CLR,,0.00,WeatherDisplay:10.37,2013-02-13 06:07:00,
2013-02-13 01:08:00,45.2,4.1,29.90,North,11,0.0,0.0,18,0.00,CLR,,0.00,WeatherDisplay:10.37,2013-02-13 06:08:00,
2013-02-13 01:11:00,44.8,3.8,29.90,North,11,0.0,0.0,18,0.00,CLR,,0.00,WeatherDisplay:10.37,2013-02-13 06:11:00,
2013-02-13 01:12:00,44.8,3.8,29.90,North,11,0.0,0.0,18,0.00,CLR,,0.00,WeatherDisplay:10.37,2013-02-13 06:12:00,
2013-02-13 01:13:00,45.2,5.3,29.90,North,11,0.0,0.0,19,0.00,CLR,,0.00,WeatherDisplay:10.37,2013-02-13 06:13:00,
2013-02-13 01:16:00,45.2,5.3,29.90,North,11,0.0,0.0,19,0.00,CLR,,0.00,WeatherDisplay:10.37,2013-02-13 06:16:00,
2013-02-13 01:17:00,45.3,5.4,29.90,North,11,0.0,0.0,19,0.00,CLR,,0.00,WeatherDisplay:10.37,2013-02-13 06:17:00,
2013-02-13 01:19:00,45.1,4.0,29.90,North,11,0.0,0.0,18,0.00,CLR,,0.00,WeatherDisplay:10.37,2013-02-13 06:19:00,
2013-02-13 01:22:00,45.2,5.3,29.90,North,11,0.0,0.0,19,0.00,CLR,,0.00,WeatherDisplay:10.37,2013-02-13 06:22:00,
2013-02-13 01:24:00,45.2,6.4,29.91,North,11,0.0,0.0,20,0.00,CLR,,0.00,WeatherDisplay:10.37,2013-02-13 06:24:00,
2013-02-13 01:27:00,45.0,8.4,29.90,North,11,0.0,0.0,22,0.00,CLR,,0.00,WeatherDisplay:10.37,2013-02-13 06:27:00,
2013-02-13 01:29:00,44.9,8.3,29.90,North,11,0.0,0.0,22,0.00,CLR,,0.00,WeatherDisplay:10.37,2013-02-13 06:29:00,
2013-02-13 01:32:00,44.7,3.7,29.91,North,11,0.0,0.0,18,0.00,CLR,,0.00,WeatherDisplay:10.37,2013-02-13 06:32:00,
2013-02-13 01:33:00,44.6,4.8,29.90,North,11,0.0,0.0,19,0.00,CLR,,0.00,WeatherDisplay:10.37,2013-02-13 06:33:00,
2013-02-13 01:34:00,44.9,6.2,29.90,North,11,0.0,0.0,20,0.00,CLR,,0.00,WeatherDisplay:10.37,2013-02-13 06:34:00,
2013-02-13 01:37:00,44.6,5.9,29.90,North,11,0.0,0.0,20,0.00,CLR,,0.00,WeatherDisplay:10.37,2013-02-13 06:37:00,
2013-02-13 01:38:00,44.6,5.9,29.90,North,11,0.0,0.0,20,0.00,CLR,,0.00,WeatherDisplay:10.37,2013-02-13 06:38:00,
2013-02-13 01:39:00,44.7,7.1,29.90,North,11,0.0,0.0,21,0.00,CLR,,0.00,WeatherDisplay:10.37,2013-02-13 06:39:00,
2013-02-13 01:42:00,44.7,8.1,29.90,North,11,0.0,0.0,22,0.00,CLR,,0.00,WeatherDisplay:10.37,2013-02-13 06:42:00,
2013-02-13 01:43:00,44.7,8.1,29.90,North,11,0.0,0.0,22,0.00,CLR,,0.00,WeatherDisplay:10.37,2013-02-13 06:43:00,
2013-02-13 01:44:00,44.7,9.1,29.90,North,11,0.0,0.0,23,0.00,CLR,,0.00,WeatherDisplay:10.37,2013-02-13 06:44:00,
2013-02-13 01:47:00,44.5,6.9,29.90,North,11,0.0,0.0,21,0.00,CLR,,0.00,WeatherDisplay:10.37,2013-02-13 06:47:00,
2013-02-13 01:48:00,44.5,6.9,29.90,North,11,0.0,0.0,21,0.00,CLR,,0.00,WeatherDisplay:10.37,2013-02-13 06:48:00,
2013-02-13 01:49:00,44.3,6.7,29.90,North,11,0.0,0.0,21,0.00,CLR,,0.00,WeatherDisplay:10.37,2013-02-13 06:49:00,
2013-02-13 01:52:00,44.3,6.7,29.89,North,11,0.0,0.0,21,0.00,CLR,,0.00,WeatherDisplay:10.37,2013-02-13 06:52:00,
2013-02-13 01:53:00,44.3,6.7,29.89,North,11,0.0,0.0,21,0.00,CLR,,0.00,WeatherDisplay:10.37,2013-02-13 06:53:00,
2013-02-13 01:54:00,44.5,6.9,29.88,North,11,0.0,0.0,21,0.00,CLR,,0.00,WeatherDisplay:10.37,2013-02-13 06:54:00,
2013-02-13 01:57:00,44.2,7.7,29.88,North,11,0.0,0.0,22,0.00,CLR,,0.00,WeatherDisplay:10.37,2013-02-13 06:57:00,
2013-02-13 01:58:00,44.5,7.9,29.88,North,11,0.0,0.0,22,0.00,CLR,,0.00,WeatherDisplay:10.37,2013-02-13 06:58:00,
2013-02-13 01:59:00,44.5,7.9,29.88,North,11,0.0,0.0,22,0.00,CLR,,0.00,WeatherDisplay:10.37,2013-02-13 06:59:00,
2013-02-13 02:02:00,44.5,7.9,29.88,North,11,0.0,0.0,22,0.00,CLR,,0.00,WeatherDisplay:10.37,2013-02-13 07:02:00,
2013-02-13 02:03:00,44.5,7.9,29.88,North,11,0.0,0.0,22,0.00,CLR,,0.00,WeatherDisplay:10.37,2013-02-13 07:03:00,
2013-02-13 02:04:00,44.8,8.2,29.88,North,11,0.0,0.0,22,0.00,CLR,,0.00,WeatherDisplay:10.37,2013-02-13 07:04:00,
2013-02-13 02:07:00,44.7,9.1,29.88,North,11,0.0,0.0,23,0.00,CLR,,0.00,WeatherDisplay:10.37,2013-02-13 07:07:00,
2013-02-13 02:08:00,44.7,8.1,29.88,North,11,0.0,0.0,22,0.00,CLR,,0.00,WeatherDisplay:10.37,2013-02-13 07:08:00,
2013-02-13 02:09:00,44.6,7.0,29.88,North,11,0.0,0.0,21,0.00,CLR,,0.00,WeatherDisplay:10.37,2013-02-13 07:09:00,
2013-02-13 02:10:00,44.5,6.9,29.88,North,11,0.0,0.0,21,0.00,CLR,,0.00,WeatherDisplay:10.37,2013-02-13 07:10:00,
2013-02-13 02:13:00,44.8,8.2,29.88,North,11,0.0,0.0,22,0.00,CLR,,0.00,WeatherDisplay:10.37,2013-02-13 07:13:00,
2013-02-13 02:14:00,44.7,8.1,29.88,North,11,0.0,0.0,22,0.00,CLR,,0.00,WeatherDisplay:10.37,2013-02-13 07:14:00,
2013-02-13 02:15:00,44.8,8.2,29.89,North,11,0.0,0.0,22,0.00,CLR,,0.00,WeatherDisplay:10.37,2013-02-13 07:15:00,
2013-02-13 02:18:00,44.7,7.1,29.89,North,11,0.0,0.0,21,0.00,CLR,,0.00,WeatherDisplay:10.37,2013-02-13 07:18:00,
2013-02-13 02:20:00,44.8,7.2,29.89,North,11,0.0,0.0,21,0.00,CLR,,0.00,WeatherDisplay:10.37,2013-02-13 07:20:00,
2013-02-13 02:23:00,44.9,7.3,29.88,North,11,0.0,0.0,21,0.00,CLR,,0.00,WeatherDisplay:10.37,2013-02-13 07:23:00,
2013-02-13 02:25:00,45.0,8.4,29.88,North,11,0.0,0.0,22,0.00,CLR,,0.00,WeatherDisplay:10.37,2013-02-13 07:25:00,
2013-02-13 02:28:00,45.1,8.5,29.88,North,11,0.0,0.0,22,0.00,CLR,,0.00,WeatherDisplay:10.37,2013-02-13 07:28:00,
2013-02-13 02:30:00,44.9,8.3,29.88,North,11,0.0,0.0,22,0.00,CLR,,0.00,WeatherDisplay:10.37,2013-02-13 07:30:00,
2013-02-13 02:33:00,45.1,10.4,29.88,North,11,0.0,0.0,24,0.00,CLR,,0.00,WeatherDisplay:10.37,2013-02-13 07:33:00,
2013-02-13 02:34:00,44.6,10.0,29.88,North,11,0.0,0.0,24,0.00,CLR,,0.00,WeatherDisplay:10.37,2013-02-13 07:34:00,
2013-02-13 02:35:00,44.5,9.9,29.88,North,11,0.0,0.0,24,0.00,CLR,,0.00,WeatherDisplay:10.37,2013-02-13 07:35:00,
2013-02-13 02:38:00,44.6,9.0,29.87,North,11,0.0,0.0,23,0.00,CLR,,0.00,WeatherDisplay:10.37,2013-02-13 07:38:00,
2013-02-13 02:39:00,44.5,8.9,29.88,North,11,0.0,0.0,23,0.00,CLR,,0.00,WeatherDisplay:10.37,2013-02-13 07:39:00,
2013-02-13 02:40:00,44.8,9.2,29.88,North,11,0.0,0.0,23,0.00,CLR,,0.00,WeatherDisplay:10.37,2013-02-13 07:40:00,
2013-02-13 02:43:00,44.7,9.1,29.87,North,11,0.0,0.0,23,0.00,CLR,,0.00,WeatherDisplay:10.37,2013-02-13 07:43:00,
2013-02-13 02:44:00,44.6,9.0,29.87,North,11,0.0,0.0,23,0.00,CLR,,0.00,WeatherDisplay:10.37,2013-02-13 07:44:00,
2013-02-13 02:45:00,45.1,9.4,29.88,North,11,0.0,0.0,23,0.00,CLR,,0.00,WeatherDisplay:10.37,2013-02-13 07:45:00,
2013-02-13 02:48:00,44.6,10.0,29.87,North,11,0.0,0.0,24,0.00,CLR,,0.00,WeatherDisplay:10.37,2013-02-13 07:48:00,
2013-02-13 02:49:00,45.0,10.3,29.87,North,11,0.0,0.0,24,0.00,CLR,,0.00,WeatherDisplay:10.37,2013-02-13 07:49:00,
2013-02-13 02:50:00,44.6,10.0,29.87,North,11,0.0,0.0,24,0.00,CLR,,0.00,WeatherDisplay:10.37,2013-02-13 07:50:00,
2013-02-13 02:53:00,44.9,11.1,29.87,North,11,0.0,0.0,25,0.00,CLR,,0.00,WeatherDisplay:10.37,2013-02-13 07:53:00,
2013-02-13 02:54:00,44.6,10.0,29.87,North,11,0.0,0.0,24,0.00,CLR,,0.00,WeatherDisplay:10.37,2013-02-13 07:54:00,
2013-02-13 02:55:00,44.7,11.0,29.87,North,11,0.0,0.0,25,0.00,CLR,,0.00,WeatherDisplay:10.37,2013-02-13 07:55:00,
2013-02-13 02:56:00,44.7,11.0,29.87,North,11,0.0,0.0,25,0.00,CLR,,0.00,WeatherDisplay:10.37,2013-02-13 07:56:00,
2013-02-13 02:59:00,44.8,11.1,29.87,North,11,0.0,0.0,25,0.00,CLR,,0.00,WeatherDisplay:10.37,2013-02-13 07:59:00,
2013-02-13 03:00:00,44.9,11.1,29.88,North,11,0.0,0.0,25,0.00,CLR,,0.00,WeatherDisplay:10.37,2013-02-13 08:00:00,
2013-02-13 03:01:00,44.9,11.1,29.88,North,11,0.0,0.0,25,0.00,CLR,,0.00,WeatherDisplay:10.37,2013-02-13 08:01:00,
2013-02-13 03:04:00,44.7,11.9,29.88,North,11,0.0,0.0,26,0.00,CLR,,0.00,WeatherDisplay:10.37,2013-02-13 08:04:00,
2013-02-13 03:05:00,44.8,11.1,29.88,North,11,0.0,0.0,25,0.00,CLR,,0.00,WeatherDisplay:10.37,2013-02-13 08:05:00,
2013-02-13 03:06:00,44.8,11.9,29.87,North,11,0.0,0.0,26,0.00,CLR,,0.00,WeatherDisplay:10.37,2013-02-13 08:06:00,
2013-02-13 03:09:00,44.4,11.6,29.87,North,11,0.0,0.0,26,0.00,CLR,,0.00,WeatherDisplay:10.37,2013-02-13 08:09:00,
2013-02-13 03:10:00,44.6,11.8,29.88,North,11,0.0,0.0,26,0.00,CLR,,0.00,WeatherDisplay:10.37,2013-02-13 08:10:00,
2013-02-13 03:11:00,44.6,11.8,29.87,North,11,0.0,0.0,26,0.00,CLR,,0.00,WeatherDisplay:10.37,2013-02-13 08:11:00,
2013-02-13 03:14:00,44.4,12.5,29.88,North,11,0.0,0.0,27,0.00,CLR,,0.00,WeatherDisplay:10.37,2013-02-13 08:14:00,
2013-02-13 03:15:00,44.5,14.2,29.88,North,11,0.0,0.0,29,0.00,CLR,,0.00,WeatherDisplay:10.37,2013-02-13 08:15:00,
2013-02-13 03:16:00,44.2,14.7,29.88,North,11,0.0,0.0,30,0.00,CLR,,0.00,WeatherDisplay:10.37,2013-02-13 08:16:00,
2013-02-13 03:19:00,44.3,14.8,29.87,North,11,0.0,0.0,30,0.00,CLR,,0.00,WeatherDisplay:10.37,2013-02-13 08:19:00,
2013-02-13 03:20:00,44.1,13.8,29.87,North,11,0.0,0.0,29,0.00,CLR,,0.00,WeatherDisplay:10.37,2013-02-13 08:20:00,
2013-02-13 03:21:00,43.7,13.5,29.87,North,11,0.0,0.0,29,0.00,CLR,,0.00,WeatherDisplay:10.37,2013-02-13 08:21:00,
2013-02-13 03:24:00,43.8,12.8,29.87,North,11,0.0,0.0,28,0.00,CLR,,0.00,WeatherDisplay:10.37,2013-02-13 08:24:00,
2013-02-13 03:25:00,43.8,13.6,29.87,North,11,0.0,0.0,29,0.00,CLR,,0.00,WeatherDisplay:10.37,2013-02-13 08:25:00,
2013-02-13 03:26:00,43.9,13.6,29.87,North,11,0.0,0.0,29,0.00,CLR,,0.00,WeatherDisplay:10.37,2013-02-13 08:26:00,
2013-02-13 03:29:00,43.7,13.5,29.86,North,11,0.0,0.0,29,0.00,CLR,,0.00,WeatherDisplay:10.37,2013-02-13 08:29:00,
2013-02-13 03:31:00,43.9,13.6,29.86,North,11,0.0,0.0,29,0.00,CLR,,0.00,WeatherDisplay:10.37,2013-02-13 08:31:00,
2013-02-13 03:34:00,43.7,14.2,29.86,North,11,0.0,0.0,30,0.00,CLR,,0.00,WeatherDisplay:10.37,2013-02-13 08:34:00,
2013-02-13 03:36:00,43.6,14.2,29.85,North,11,0.0,0.0,30,0.00,CLR,,0.00,WeatherDisplay:10.37,2013-02-13 08:36:00,
2013-02-13 03:37:00,43.6,14.2,29.85,North,11,0.0,0.0,30,0.00,CLR,,0.00,WeatherDisplay:10.37,2013-02-13 08:37:00,
2013-02-13 03:39:00,43.7,13.5,29.85,North,11,0.0,0.0,29,0.00,CLR,,0.00,WeatherDisplay:10.37,2013-02-13 08:39:00,
2013-02-13 03:41:00,43.7,14.2,29.85,North,11,0.0,0.0,30,0.00,CLR,,0.00,WeatherDisplay:10.37,2013-02-13 08:41:00,
2013-02-13 03:42:00,43.5,14.1,29.85,North,11,0.0,0.0,30,0.00,CLR,,0.00,WeatherDisplay:10.37,2013-02-13 08:42:00,
2013-02-13 03:45:00,43.9,14.4,29.84,North,11,0.0,0.0,30,0.00,CLR,,0.00,WeatherDisplay:10.37,2013-02-13 08:45:00,
2013-02-13 03:47:00,43.5,14.1,29.84,North,11,0.0,0.0,30,0.00,CLR,,0.00,WeatherDisplay:10.37,2013-02-13 08:47:00,
2013-02-13 03:48:00,43.6,14.2,29.84,North,11,0.0,0.0,30,0.00,CLR,,0.00,WeatherDisplay:10.37,2013-02-13 08:48:00,
2013-02-13 03:50:00,43.5,14.1,29.85,North,11,0.0,0.0,30,0.00,CLR,,0.00,WeatherDisplay:10.37,2013-02-13 08:50:00,
2013-02-13 03:52:00,43.7,14.2,29.84,North,11,0.0,0.0,30,0.00,CLR,,0.00,WeatherDisplay:10.37,2013-02-13 08:52:00,
2013-02-13 03:53:00,43.7,14.2,29.84,North,11,0.0,0.0,30,0.00,CLR,,0.00,WeatherDisplay:10.37,2013-02-13 08:53:00,
2013-02-13 03:55:00,43.4,14.0,29.84,North,11,0.0,0.0,30,0.00,CLR,,0.00,WeatherDisplay:10.37,2013-02-13 08:55:00,
2013-02-13 03:57:00,43.4,14.7,29.84,North,11,0.0,0.0,31,0.00,CLR,,0.00,WeatherDisplay:10.37,2013-02-13 08:57:00,
2013-02-13 03:58:00,43.5,14.8,29.84,North,11,0.0,0.0,31,0.00,CLR,,0.00,WeatherDisplay:10.37,2013-02-13 08:58:00,
2013-02-13 04:00:00,43.5,14.8,29.84,North,11,0.0,0.0,31,0.00,CLR,,0.00,WeatherDisplay:10.37,2013-02-13 09:00:00,
2013-02-13 04:02:00,43.6,14.9,29.84,North,11,0.0,0.0,31,0.00,CLR,,0.00,WeatherDisplay:10.37,2013-02-13 09:02:00,
2013-02-13 04:03:00,43.3,13.9,29.84,North,11,0.0,0.0,30,0.00,CLR,,0.00,WeatherDisplay:10.37,2013-02-13 09:03:00,
2013-02-13 04:05:00,43.6,13.4,29.84,North,11,0.0,0.0,29,0.00,CLR,,0.00,WeatherDisplay:10.37,2013-02-13 09:05:00,
2013-02-13 04:07:00,43.5,13.3,29.83,North,11,0.0,0.0,29,0.00,CLR,,0.00,WeatherDisplay:10.37,2013-02-13 09:07:00,
2013-02-13 04:08:00,43.7,13.5,29.83,North,11,0.0,0.0,29,0.00,CLR,,0.00,WeatherDisplay:10.37,2013-02-13 09:08:00,
2013-02-13 04:10:00,43.6,13.4,29.83,North,11,0.0,0.0,29,0.00,CLR,,0.00,WeatherDisplay:10.37,2013-02-13 09:10:00,
2013-02-13 04:12:00,43.5,12.5,29.83,North,11,0.0,0.0,28,0.00,CLR,,0.00,WeatherDisplay:10.37,2013-02-13 09:12:00,
2013-02-13 04:13:00,43.7,12.7,29.84,North,11,0.0,0.0,28,0.00,CLR,,0.00,WeatherDisplay:10.37,2013-02-13 09:13:00,
2013-02-13 04:15:00,43.6,12.6,29.83,North,11,0.0,0.0,28,0.00,CLR,,0.00,WeatherDisplay:10.37,2013-02-13 09:15:00,
2013-02-13 04:17:00,44.1,13.0,29.83,North,11,0.0,0.0,28,0.00,CLR,,0.00,WeatherDisplay:10.37,2013-02-13 09:17:00,
2013-02-13 04:18:00,43.9,12.8,29.83,North,11,0.0,0.0,28,0.00,CLR,,0.00,WeatherDisplay:10.37,2013-02-13 09:18:00,
2013-02-13 04:20:00,44.0,12.9,29.84,North,11,0.0,0.0,28,0.00,CLR,,0.00,WeatherDisplay:10.37,2013-02-13 09:20:00,
2013-02-13 04:23:00,44.1,12.2,29.84,North,11,0.0,0.0,27,0.00,CLR,,0.00,WeatherDisplay:10.37,2013-02-13 09:23:00,
2013-02-13 04:24:00,43.9,11.2,29.84,North,11,0.0,0.0,26,0.00,CLR,,0.00,WeatherDisplay:10.37,2013-02-13 09:24:00,
2013-02-13 04:25:00,44.1,11.3,29.84,North,11,0.0,0.0,26,0.00,CLR,,0.00,WeatherDisplay:10.37,2013-02-13 09:25:00,
2013-02-13 04:28:00,44.1,10.5,29.83,North,11,0.0,0.0,25,0.00,CLR,,0.00,WeatherDisplay:10.37,2013-02-13 09:28:00,
2013-02-13 04:29:00,44.1,10.5,29.83,North,11,0.0,0.0,25,0.00,CLR,,0.00,WeatherDisplay:10.37,2013-02-13 09:29:00,
2013-02-13 04:30:00,44.4,10.7,29.83,North,11,0.0,0.0,25,0.00,CLR,,0.00,WeatherDisplay:10.37,2013-02-13 09:30:00,
2013-02-13 04:33:00,44.4,10.7,29.83,North,11,0.0,0.0,25,0.00,CLR,,0.00,WeatherDisplay:10.37,2013-02-13 09:33:00,
2013-02-13 04:34:00,44.5,10.8,29.83,North,11,0.0,0.0,25,0.00,CLR,,0.00,WeatherDisplay:10.37,2013-02-13 09:34:00,
2013-02-13 04:35:00,44.4,10.7,29.83,North,11,0.0,0.0,25,0.00,CLR,,0.00,WeatherDisplay:10.37,2013-02-13 09:35:00,
2013-02-13 04:38:00,44.6,10.9,29.83,North,11,0.0,0.0,25,0.00,CLR,,0.00,WeatherDisplay:10.37,2013-02-13 09:38:00,
2013-02-13 04:39:00,44.8,11.1,29.83,North,11,0.0,0.0,25,0.00,CLR,,0.00,WeatherDisplay:10.37,2013-02-13 09:39:00,
2013-02-13 04:40:00,44.8,11.1,29.83,North,11,0.0,0.0,25,0.00,CLR,,0.00,WeatherDisplay:10.37,2013-02-13 09:40:00,
2013-02-13 04:43:00,44.6,11.8,29.82,North,11,0.0,0.0,26,0.00,CLR,,0.00,WeatherDisplay:10.37,2013-02-13 09:43:00,
2013-02-13 04:44:00,44.6,11.8,29.82,North,11,0.0,0.0,26,0.00,CLR,,0.00,WeatherDisplay:10.37,2013-02-13 09:44:00,
2013-02-13 04:45:00,44.5,11.7,29.81,North,11,0.0,0.0,26,0.00,CLR,,0.00,WeatherDisplay:10.37,2013-02-13 09:45:00,
2013-02-13 04:49:00,44.8,10.1,29.82,North,11,0.0,0.0,24,0.00,CLR,,0.00,WeatherDisplay:10.37,2013-02-13 09:49:00,
2013-02-13 04:50:00,44.8,9.2,29.82,North,11,0.0,0.0,23,0.00,CLR,,0.00,WeatherDisplay:10.37,2013-02-13 09:50:00,
2013-02-13 04:51:00,44.7,9.1,29.82,North,11,0.0,0.0,23,0.00,CLR,,0.00,WeatherDisplay:10.37,2013-02-13 09:51:00,
2013-02-13 04:54:00,44.8,8.2,29.82,North,11,0.0,0.0,22,0.00,CLR,,0.00,WeatherDisplay:10.37,2013-02-13 09:54:00,
2013-02-13 04:55:00,45.2,7.5,29.82,North,11,0.0,0.0,21,0.00,CLR,,0.00,WeatherDisplay:10.37,2013-02-13 09:55:00,
2013-02-13 04:56:00,45.0,8.4,29.82,North,11,0.0,0.0,22,0.00,CLR,,0.00,WeatherDisplay:10.37,2013-02-13 09:56:00,
2013-02-13 04:59:00,45.0,7.3,29.82,North,11,0.0,0.0,21,0.00,CLR,,0.00,WeatherDisplay:10.37,2013-02-13 09:59:00,
2013-02-13 05:00:00,45.2,8.5,29.82,North,11,0.0,0.0,22,0.00,CLR,,0.00,WeatherDisplay:10.37,2013-02-13 10:00:00,
2013-02-13 05:01:00,44.9,7.3,29.82,North,11,0.0,0.0,21,0.00,CLR,,0.00,WeatherDisplay:10.37,2013-02-13 10:01:00,
2013-02-13 05:04:00,45.1,7.4,29.81,North,11,0.0,0.0,21,0.00,CLR,,0.00,WeatherDisplay:10.37,2013-02-13 10:04:00,
2013-02-13 05:06:00,44.8,9.2,29.81,North,11,0.0,0.0,23,0.00,CLR,,0.00,WeatherDisplay:10.37,2013-02-13 10:06:00,
2013-02-13 05:09:00,45.0,10.3,29.81,North,11,0.0,0.0,24,0.00,CLR,,0.00,WeatherDisplay:10.37,2013-02-13 10:09:00,
2013-02-13 05:11:00,44.7,9.1,29.81,North,11,0.0,0.0,23,0.00,CLR,,0.00,WeatherDisplay:10.37,2013-02-13 10:11:00,
2013-02-13 05:12:00,44.9,9.3,29.81,North,11,0.0,0.0,23,0.00,CLR,,0.00,WeatherDisplay:10.37,2013-02-13 10:12:00,
2013-02-13 05:14:00,44.5,9.9,29.81,North,11,0.0,0.0,24,0.00,CLR,,0.00,WeatherDisplay:10.37,2013-02-13 10:14:00,
2013-02-13 05:16:00,44.5,9.9,29.81,North,11,0.0,0.0,24,0.00,CLR,,0.00,WeatherDisplay:10.37,2013-02-13 10:16:00,
2013-02-13 05:17:00,44.6,10.0,29.81,North,11,0.0,0.0,24,0.00,CLR,,0.00,WeatherDisplay:10.37,2013-02-13 10:17:00,
2013-02-13 05:19:00,44.6,10.9,29.81,North,11,0.0,0.0,25,0.00,CLR,,0.00,WeatherDisplay:10.37,2013-02-13 10:19:00,
2013-02-13 05:21:00,44.5,12.5,29.81,North,11,0.0,0.0,27,0.00,CLR,,0.00,WeatherDisplay:10.37,2013-02-13 10:21:00,
2013-02-13 05:22:00,44.3,13.2,29.81,North,11,0.0,0.0,28,0.00,CLR,,0.00,WeatherDisplay:10.37,2013-02-13 10:22:00,
2013-02-13 05:24:00,44.4,11.6,29.81,North,11,0.0,0.0,26,0.00,CLR,,0.00,WeatherDisplay:10.37,2013-02-13 10:24:00,
2013-02-13 05:26:00,44.5,11.7,29.80,North,11,0.0,0.0,26,0.00,CLR,,0.00,WeatherDisplay:10.37,2013-02-13 10:26:00,
2013-02-13 05:27:00,44.4,11.6,29.80,North,11,0.0,0.0,26,0.00,CLR,,0.00,WeatherDisplay:10.37,2013-02-13 10:27:00,
2013-02-13 05:29:00,44.6,11.8,29.80,North,11,0.0,0.0,26,0.00,CLR,,0.00,WeatherDisplay:10.37,2013-02-13 10:29:00,
2013-02-13 05:31:00,44.3,12.4,29.80,North,11,0.0,0.0,27,0.00,CLR,,0.00,WeatherDisplay:10.37,2013-02-13 10:31:00,
2013-02-13 05:32:00,44.3,14.8,29.80,North,11,0.0,0.0,30,0.00,CLR,,0.00,WeatherDisplay:10.37,2013-02-13 10:32:00,
2013-02-13 05:34:00,44.1,15.3,29.81,North,11,0.0,0.0,31,0.00,CLR,,0.00,WeatherDisplay:10.37,2013-02-13 10:34:00,
2013-02-13 05:36:00,43.8,15.1,29.80,North,11,0.0,0.0,31,0.00,CLR,,0.00,WeatherDisplay:10.37,2013-02-13 10:36:00,
2013-02-13 05:37:00,44.1,15.3,29.80,North,11,0.0,0.0,31,0.00,CLR,,0.00,WeatherDisplay:10.37,2013-02-13 10:37:00,
2013-02-13 05:39:00,43.9,15.9,29.81,North,11,0.0,0.0,32,0.00,CLR,,0.00,WeatherDisplay:10.37,2013-02-13 10:39:00,
2013-02-13 05:42:00,43.8,15.8,29.81,North,11,0.0,0.0,32,0.00,CLR,,0.00,WeatherDisplay:10.37,2013-02-13 10:42:00,
2013-02-13 05:43:00,44.1,16.1,29.81,North,11,0.0,0.0,32,0.00,CLR,,0.00,WeatherDisplay:10.37,2013-02-13 10:43:00,
2013-02-13 05:44:00,43.7,16.4,29.81,North,11,0.0,0.0,33,0.00,CLR,,0.00,WeatherDisplay:10.37,2013-02-13 10:44:00,
2013-02-13 05:45:00,43.8,16.5,29.81,North,11,0.0,0.0,33,0.00,CLR,,0.00,WeatherDisplay:10.37,2013-02-13 10:45:00,
2013-02-13 05:47:00,43.9,17.3,29.81,North,11,0.0,0.0,34,0.00,CLR,,0.00,WeatherDisplay:10.37,2013-02-13 10:47:00,
2013-02-13 05:48:00,43.8,17.2,29.81,North,11,0.0,0.0,34,0.00,CLR,,0.00,WeatherDisplay:10.37,2013-02-13 10:48:00,
2013-02-13 05:49:00,43.6,17.0,29.81,North,11,0.0,0.0,34,0.00,CLR,,0.00,WeatherDisplay:10.37,2013-02-13 10:49:00,
2013-02-13 05:50:00,43.7,17.1,29.81,North,11,0.0,0.0,34,0.00,CLR,,0.00,WeatherDisplay:10.37,2013-02-13 10:50:00,
2013-02-13 05:52:00,43.4,17.5,29.81,North,11,0.0,0.0,35,0.00,CLR,,0.00,WeatherDisplay:10.37,2013-02-13 10:52:00,
2013-02-13 05:53:00,43.5,17.6,29.81,North,11,0.0,0.0,35,0.00,CLR,,0.00,WeatherDisplay:10.37,2013-02-13 10:53:00,
2013-02-13 05:54:00,43.3,16.8,29.81,North,11,0.0,0.0,34,0.00,CLR,,0.00,WeatherDisplay:10.37,2013-02-13 10:54:00,
2013-02-13 05:55:00,43.2,16.7,29.81,North,11,0.0,0.0,34,0.00,CLR,,0.00,WeatherDisplay:10.37,2013-02-13 10:55:00,
2013-02-13 05:57:00,43.4,17.5,29.81,North,11,0.0,0.0,35,0.00,CLR,,0.00,WeatherDisplay:10.37,2013-02-13 10:57:00,
2013-02-13 05:58:00,43.2,16.7,29.81,North,11,0.0,0.0,34,0.00,CLR,,0.00,WeatherDisplay:10.37,2013-02-13 10:58:00,
2013-02-13 05:59:00,43.3,16.8,29.82,North,11,0.0,0.0,34,0.00,CLR,,0.00,WeatherDisplay:10.37,2013-02-13 10:59:00,
2013-02-13 06:00:00,43.1,18.6,29.82,North,11,0.0,0.0,37,0.00,CLR,,0.00,WeatherDisplay:10.37,2013-02-13 11:00:00,
2013-02-13 06:02:00,43.0,18.5,29.81,North,11,0.0,0.0,37,0.00,CLR,,0.00,WeatherDisplay:10.37,2013-02-13 11:02:00,
2013-02-13 06:03:00,43.1,18.6,29.81,North,11,0.0,0.0,37,0.00,CLR,,0.00,WeatherDisplay:10.37,2013-02-13 11:03:00,
2013-02-13 06:05:00,42.8,17.0,29.81,North,11,0.0,0.0,35,0.00,CLR,,0.00,WeatherDisplay:10.37,2013-02-13 11:05:00,
2013-02-13 06:07:00,42.9,17.1,29.81,North,11,0.0,0.0,35,0.00,CLR,,0.00,WeatherDisplay:10.37,2013-02-13 11:07:00,
2013-02-13 06:08:00,43.0,16.5,29.81,North,11,0.0,0.0,34,0.00,CLR,,0.00,WeatherDisplay:10.37,2013-02-13 11:08:00,
2013-02-13 06:10:00,43.1,15.9,29.81,North,11,0.0,0.0,33,0.00,CLR,,0.00,WeatherDisplay:10.37,2013-02-13 11:10:00,
2013-02-13 06:12:00,42.7,16.2,29.81,North,11,0.0,0.0,34,0.00,CLR,,0.00,WeatherDisplay:10.37,2013-02-13 11:12:00,
2013-02-13 06:13:00,42.7,16.2,29.81,North,11,0.0,0.0,34,0.00,CLR,,0.00,WeatherDisplay:10.37,2013-02-13 11:13:00,
2013-02-13 06:16:00,43.0,15.1,29.81,North,11,0.0,0.0,32,0.00,CLR,,0.00,WeatherDisplay:10.37,2013-02-13 11:16:00,
2013-02-13 06:17:00,42.8,15.6,29.81,North,11,0.0,0.0,33,0.00,CLR,,0.00,WeatherDisplay:10.37,2013-02-13 11:17:00,
2013-02-13 06:19:00,42.8,14.2,29.81,North,11,0.0,0.0,31,0.00,CLR,,0.00,WeatherDisplay:10.37,2013-02-13 11:19:00,
2013-02-13 06:21:00,42.8,11.9,29.80,North,11,0.0,0.0,28,0.00,CLR,,0.00,WeatherDisplay:10.37,2013-02-13 11:21:00,
2013-02-13 06:22:00,43.2,13.0,29.80,North,11,0.0,0.0,29,0.00,CLR,,0.00,WeatherDisplay:10.37,2013-02-13 11:22:00,
2013-02-13 06:24:00,43.2,13.0,29.80,North,11,0.0,0.0,29,0.00,CLR,,0.00,WeatherDisplay:10.37,2013-02-13 11:24:00,
2013-02-13 06:26:00,43.0,11.2,29.80,North,11,0.0,0.0,27,0.00,CLR,,0.00,WeatherDisplay:10.37,2013-02-13 11:26:00,
2013-02-13 06:27:00,43.1,12.2,29.80,North,11,0.0,0.0,28,0.00,CLR,,0.00,WeatherDisplay:10.37,2013-02-13 11:27:00,
2013-02-13 06:29:00,43.2,12.2,29.80,North,11,0.0,0.0,28,0.00,CLR,,0.00,WeatherDisplay:10.37,2013-02-13 11:29:00,
2013-02-13 06:31:00,43.0,12.1,29.81,North,11,0.3,0.0,28,0.00,CLR,,0.00,WeatherDisplay:10.37,2013-02-13 11:31:00,
2013-02-13 06:32:00,43.1,12.9,29.81,NW,308,0.0,4.6,29,0.00,CLR,,0.00,WeatherDisplay:10.37,2013-02-13 11:32:00,
2013-02-13 06:34:00,43.3,13.1,29.80,NW,308,0.0,0.0,29,0.00,CLR,,0.00,WeatherDisplay:10.37,2013-02-13 11:34:00,
2013-02-13 06:36:00,42.7,13.4,29.80,NNW,337,1.4,4.8,30,0.00,CLR,,0.00,WeatherDisplay:10.37,2013-02-13 11:36:00,
2013-02-13 06:38:00,43.0,13.6,29.81,NNW,332,4.8,6.9,30,0.00,CLR,,0.00,WeatherDisplay:10.37,2013-02-13 11:38:00,
2013-02-13 06:39:00,42.9,13.5,29.81,NNW,332,0.0,0.0,30,0.00,CLR,,0.00,WeatherDisplay:10.37,2013-02-13 11:39:00,
2013-02-13 06:41:00,43.3,14.6,29.81,NNW,332,0.0,0.0,31,0.00,CLR,,0.00,WeatherDisplay:10.37,2013-02-13 11:41:00,
2013-02-13 06:43:00,42.9,15.0,29.81,NNW,332,0.0,0.0,32,0.00,CLR,,0.00,WeatherDisplay:10.37,2013-02-13 11:43:00,
2013-02-13 06:44:00,43.0,15.8,29.81,NNW,332,0.0,0.0,33,0.00,CLR,,0.00,WeatherDisplay:10.37,2013-02-13 11:44:00,
2013-02-13 06:46:00,43.2,16.0,29.81,NNW,332,0.0,0.0,33,0.00,CLR,,0.00,WeatherDisplay:10.37,2013-02-13 11:46:00,
2013-02-13 06:48:00,42.8,16.3,29.81,NNW,332,0.0,0.0,34,0.00,CLR,,0.00,WeatherDisplay:10.37,2013-02-13 11:48:00,
2013-02-13 06:50:00,43.4,16.2,29.81,NNW,332,0.0,0.0,33,0.00,CLR,,0.00,WeatherDisplay:10.37,2013-02-13 11:50:00,
2013-02-13 06:51:00,43.0,15.8,29.80,NNW,332,0.0,0.0,33,0.00,CLR,,0.00,WeatherDisplay:10.37,2013-02-13 11:51:00,
2013-02-13 06:52:00,43.2,15.3,29.80,NNW,332,0.0,0.0,32,0.00,CLR,,0.00,WeatherDisplay:10.37,2013-02-13 11:52:00,
2013-02-13 06:53:00,43.1,15.9,29.81,NNW,332,0.0,0.0,33,0.00,CLR,,0.00,WeatherDisplay:10.37,2013-02-13 11:53:00,
2013-02-13 06:55:00,43.0,16.5,29.81,NNW,332,0.0,0.0,34,0.00,CLR,,0.00,WeatherDisplay:10.37,2013-02-13 11:55:00,
2013-02-13 06:56:00,42.8,15.6,29.81,NNW,332,0.0,0.0,33,0.00,CLR,,0.00,WeatherDisplay:10.37,2013-02-13 11:56:00,
2013-02-13 06:57:00,43.2,16.0,29.81,NNW,332,0.0,0.0,33,0.00,CLR,,0.00,WeatherDisplay:10.37,2013-02-13 11:57:00,
2013-02-13 06:58:00,43.1,16.6,29.80,NNW,332,0.0,0.0,34,0.00,CLR,,0.00,WeatherDisplay:10.37,2013-02-13 11:58:00,
2013-02-13 07:01:00,43.1,16.6,29.81,NNW,332,0.0,0.0,34,0.00,CLR,,0.00,WeatherDisplay:10.37,2013-02-13 12:01:00,
2013-02-13 07:02:00,43.3,16.8,29.81,NNW,332,0.0,0.0,34,0.00,CLR,,0.00,WeatherDisplay:10.37,2013-02-13 12:02:00,
2013-02-13 07:03:00,43.1,16.6,29.82,NNW,332,0.0,0.0,34,0.00,CLR,,0.00,WeatherDisplay:10.37,2013-02-13 12:03:00,
2013-02-13 07:06:00,43.3,16.1,29.81,NNW,332,0.0,0.0,33,0.00,CLR,,0.00,WeatherDisplay:10.37,2013-02-13 12:06:00,
2013-02-13 07:07:00,43.3,16.1,29.81,NNW,332,0.0,0.0,33,0.00,CLR,,0.00,WeatherDisplay:10.37,2013-02-13 12:07:00,
2013-02-13 07:08:00,43.3,16.1,29.81,NNW,332,0.0,0.0,33,0.00,CLR,,0.00,WeatherDisplay:10.37,2013-02-13 12:08:00,
2013-02-13 07:11:00,43.2,16.0,29.80,NNW,332,0.0,0.0,33,0.00,CLR,,0.00,WeatherDisplay:10.37,2013-02-13 12:11:00,
2013-02-13 07:12:00,43.1,17.3,29.80,NNW,332,0.0,0.0,35,0.00,CLR,,0.00,WeatherDisplay:10.37,2013-02-13 12:12:00,
2013-02-13 07:13:00,42.7,19.4,29.80,NNW,332,0.0,0.0,39,0.00,CLR,,0.00,WeatherDisplay:10.37,2013-02-13 12:13:00,
2013-02-13 07:14:00,43.0,20.3,29.81,NNW,332,0.0,0.0,40,0.00,CLR,,0.00,WeatherDisplay:10.37,2013-02-13 12:14:00,
2013-02-13 07:16:00,42.6,19.9,29.81,NNW,332,0.0,0.0,40,0.00,CLR,,0.00,WeatherDisplay:10.37,2013-02-13 12:16:00,
2013-02-13 07:17:00,42.6,19.3,29.81,NNW,332,0.0,0.0,39,0.00,CLR,,0.00,WeatherDisplay:10.37,2013-02-13 12:17:00,
2013-02-13 07:18:00,42.9,19.0,29.81,NNW,332,0.0,0.0,38,0.00,CLR,,0.00,WeatherDisplay:10.37,2013-02-13 12:18:00,
2013-02-13 07:19:00,42.6,18.7,29.80,NNW,332,0.0,0.0,38,0.00,CLR,,0.00,WeatherDisplay:10.37,2013-02-13 12:19:00,
2013-02-13 07:21:00,42.5,21.0,29.80,NNW,332,0.0,0.0,42,0.00,CLR,,0.00,WeatherDisplay:10.37,2013-02-13 12:21:00,
2013-02-13 07:22:00,42.5,23.2,29.80,NNW,332,0.0,0.0,46,0.00,CLR,,0.00,WeatherDisplay:10.37,2013-02-13 12:22:00,
2013-02-13 07:23:00,42.4,25.1,29.80,NNW,332,0.0,0.0,50,0.00,CLR,,0.00,WeatherDisplay:10.37,2013-02-13 12:23:00,
2013-02-13 07:24:00,42.2,24.4,29.80,NNW,332,0.0,0.0,49,0.00,CLR,,0.00,WeatherDisplay:10.37,2013-02-13 12:24:00,
2013-02-13 07:26:00,42.3,24.0,29.80,NNW,332,0.0,0.0,48,0.00,CLR,,0.00,WeatherDisplay:10.37,2013-02-13 12:26:00,
2013-02-13 07:27:00,42.3,23.5,29.80,NNW,332,0.0,0.0,47,0.00,CLR,,0.00,WeatherDisplay:10.37,2013-02-13 12:27:00,
2013-02-13 07:28:00,42.2,23.4,29.80,NNW,332,0.0,0.0,47,0.00,CLR,,0.00,WeatherDisplay:10.37,2013-02-13 12:28:00,
2013-02-13 07:29:00,42.1,23.3,29.80,NNW,332,0.0,0.0,47,0.00,CLR,,0.00,WeatherDisplay:10.37,2013-02-13 12:29:00,
2013-02-13 07:31:00,42.2,23.4,29.80,NNW,332,0.0,0.0,47,0.00,CLR,,0.00,WeatherDisplay:10.37,2013-02-13 12:31:00,
2013-02-13 07:32:00,42.3,23.5,29.80,NNW,332,0.0,0.0,47,0.00,CLR,,0.00,WeatherDisplay:10.37,2013-02-13 12:32:00,
2013-02-13 07:34:00,42.3,24.0,29.81,NNW,332,0.0,0.0,48,0.00,CLR,,0.00,WeatherDisplay:10.37,2013-02-13 12:34:00,
2013-02-13 07:36:00,42.1,23.8,29.81,NNW,332,0.0,0.0,48,0.00,CLR,,0.00,WeatherDisplay:10.37,2013-02-13 12:36:00,
2013-02-13 07:37:00,42.4,24.1,29.81,NNW,332,0.0,0.0,48,0.00,CLR,,0.00,WeatherDisplay:10.37,2013-02-13 12:37:00,
2013-02-13 07:39:00,42.2,23.4,29.81,NNW,332,0.0,0.0,47,0.00,CLR,,0.00,WeatherDisplay:10.37,2013-02-13 12:39:00,
2013-02-13 07:41:00,42.0,23.2,29.80,NNW,332,0.0,0.0,47,0.00,CLR,,0.00,WeatherDisplay:10.37,2013-02-13 12:41:00,
2013-02-13 07:42:00,42.3,23.5,29.80,NNW,332,0.0,0.0,47,0.00,CLR,,0.00,WeatherDisplay:10.37,2013-02-13 12:42:00,
2013-02-13 07:44:00,42.2,22.9,29.80,NNW,332,0.0,0.0,46,0.00,CLR,,0.00,WeatherDisplay:10.37,2013-02-13 12:44:00,
2013-02-13 07:46:00,42.4,24.1,29.80,NNW,332,0.0,0.0,48,0.00,CLR,,0.00,WeatherDisplay:10.37,2013-02-13 12:46:00,
2013-02-13 07:47:00,42.0,24.7,29.79,NNW,332,0.0,0.0,50,0.00,CLR,,0.00,WeatherDisplay:10.37,2013-02-13 12:47:00,
2013-02-13 07:49:00,42.3,24.5,29.79,NNW,332,0.0,0.0,49,0.00,CLR,,0.00,WeatherDisplay:10.37,2013-02-13 12:49:00,
2013-02-13 07:50:00,42.4,24.6,29.78,NNW,332,0.0,0.0,49,0.00,CLR,,0.00,WeatherDisplay:10.37,2013-02-13 12:50:00,
2013-02-13 07:52:00,42.4,24.1,29.79,NNW,332,0.0,0.0,48,0.00,CLR,,0.00,WeatherDisplay:10.37,2013-02-13 12:52:00,
2013-02-13 07:55:00,42.6,24.3,29.80,NNW,332,0.0,0.0,48,0.00,CLR,,0.00,WeatherDisplay:10.37,2013-02-13 12:55:00,
2013-02-13 07:57:00,42.7,24.4,29.80,NNW,332,0.0,0.0,48,0.00,CLR,,0.00,WeatherDisplay:10.37,2013-02-13 12:57:00,
2013-02-13 08:00:00,42.7,23.3,29.80,NNW,332,0.0,0.0,46,0.00,CLR,,0.00,WeatherDisplay:10.37,2013-02-13 13:00:00,
2013-02-13 08:02:00,42.9,22.5,29.80,NNW,332,0.0,0.0,44,0.00,CLR,,0.00,WeatherDisplay:10.37,2013-02-13 13:02:00,
2013-02-13 08:05:00,42.8,21.3,29.81,NNW,332,0.0,0.0,42,0.00,CLR,,0.00,WeatherDisplay:10.37,2013-02-13 13:05:00,
2013-02-13 08:07:00,42.9,21.4,29.81,NNW,332,0.0,0.0,42,0.00,CLR,,0.00,WeatherDisplay:10.37,2013-02-13 13:07:00,
2013-02-13 08:08:00,43.2,21.6,29.82,NNW,332,0.0,0.0,42,0.00,CLR,,0.00,WeatherDisplay:10.37,2013-02-13 13:08:00,
2013-02-13 08:10:00,43.2,21.1,29.82,NNW,332,0.0,0.0,41,0.00,CLR,,0.00,WeatherDisplay:10.37,2013-02-13 13:10:00,
2013-02-13 08:12:00,43.4,21.8,29.82,NNW,332,0.0,0.0,42,0.00,CLR,,0.00,WeatherDisplay:10.37,2013-02-13 13:12:00,
2013-02-13 08:13:00,43.2,21.6,29.82,NNW,332,0.0,0.0,42,0.00,CLR,,0.00,WeatherDisplay:10.37,2013-02-13 13:13:00,
2013-02-13 08:15:00,43.1,22.6,29.82,ESE,106,0.9,3.5,44,0.00,CLR,,0.00,WeatherDisplay:10.37,2013-02-13 13:15:00,
2013-02-13 08:17:00,42.6,22.7,29.81,ESE,104,2.9,6.9,45,0.00,CLR,,0.00,WeatherDisplay:10.37,2013-02-13 13:17:00,
2013-02-13 08:18:00,42.7,22.8,29.81,East,95,2.7,5.8,45,0.00,CLR,,0.00,WeatherDisplay:10.37,2013-02-13 13:18:00,
2013-02-13 08:20:00,42.7,23.8,29.81,East,83,1.6,6.9,47,0.00,CLR,,0.00,WeatherDisplay:10.37,2013-02-13 13:20:00,
2013-02-13 08:22:00,42.4,25.1,29.81,East,89,1.7,4.6,50,0.00,CLR,,0.00,WeatherDisplay:10.37,2013-02-13 13:22:00,
2013-02-13 08:23:00,42.5,25.1,29.81,ESE,112,2.0,4.6,50,0.00,CLR,,0.00,WeatherDisplay:10.37,2013-02-13 13:23:00,
2013-02-13 08:25:00,42.6,27.1,29.80,ESE,112,0.0,0.0,54,0.00,CLR,,0.00,WeatherDisplay:10.37,2013-02-13 13:25:00,
2013-02-13 08:26:00,42.6,27.1,29.81,ESE,112,0.0,0.0,54,0.00,CLR,,0.00,WeatherDisplay:10.37,2013-02-13 13:26:00,
2013-02-13 08:27:00,42.9,27.8,29.81,East,93,0.3,3.5,55,0.00,CLR,,0.00,WeatherDisplay:10.37,2013-02-13 13:27:00,
2013-02-13 08:28:00,42.8,27.7,29.81,East,93,0.0,3.5,55,0.00,CLR,,0.00,WeatherDisplay:10.37,2013-02-13 13:28:00,
2013-02-13 08:30:00,42.8,29.0,29.81,East,93,0.0,0.0,58,0.00,CLR,,0.00,WeatherDisplay:10.37,2013-02-13 13:30:00,
2013-02-13 08:31:00,43.0,29.2,29.81,East,93,0.0,0.0,58,0.00,CLR,,0.00,WeatherDisplay:10.37,2013-02-13 13:31:00,
2013-02-13 08:33:00,42.8,29.9,29.81,ESE,112,0.6,4.6,60,0.00,CLR,,0.00,WeatherDisplay:10.37,2013-02-13 13:33:00,
2013-02-13 08:35:00,43.1,32.1,29.81,East,97,0.0,1.3,65,0.00,CLR,,0.00,WeatherDisplay:10.37,2013-02-13 13:35:00,
2013-02-13 08:36:00,42.8,32.2,29.80,East,89,4.1,6.9,66,0.00,CLR,,0.00,WeatherDisplay:10.37,2013-02-13 13:36:00,
2013-02-13 08:38:00,43.0,33.2,29.81,East,97,5.5,8.1,68,0.00,CLR,,0.00,WeatherDisplay:10.37,2013-02-13 13:38:00,
2013-02-13 08:40:00,43.0,33.9,29.80,East,79,2.7,4.6,70,0.00,CLR,,0.00,WeatherDisplay:10.37,2013-02-13 13:40:00,
2013-02-13 08:41:00,42.9,34.1,29.80,East,79,0.0,3.5,71,0.00,CLR,,0.00,WeatherDisplay:10.37,2013-02-13 13:41:00,
2013-02-13 08:43:00,43.4,35.0,29.81,NE,52,0.5,4.3,72,0.00,CLR,,0.00,WeatherDisplay:10.37,2013-02-13 13:43:00,
2013-02-13 08:46:00,43.3,34.9,29.81,East,100,2.6,4.2,72,0.00,CLR,,0.00,WeatherDisplay:10.37,2013-02-13 13:46:00,
2013-02-13 08:48:00,43.5,35.4,29.81,ESE,103,2.1,6.9,73,0.00,CLR,,0.00,WeatherDisplay:10.37,2013-02-13 13:48:00,
2013-02-13 08:51:00,43.8,35.7,29.81,ENE,62,2.2,9.2,73,0.00,CLR,,0.00,WeatherDisplay:10.37,2013-02-13 13:51:00,
2013-02-13 08:52:00,43.7,35.6,29.81,SE,130,1.8,5.2,73,0.00,CLR,,0.00,WeatherDisplay:10.37,2013-02-13 13:52:00,
2013-02-13 08:53:00,43.7,35.3,29.81,SE,143,5.5,8.1,72,0.00,CLR,,0.00,WeatherDisplay:10.37,2013-02-13 13:53:00,
2013-02-13 08:56:00,44.0,35.2,29.82,SSE,147,5.1,6.9,71,0.00,CLR,,0.00,WeatherDisplay:10.37,2013-02-13 13:56:00,
2013-02-13 08:57:00,43.5,34.7,29.81,East,80,3.3,6.9,71,0.00,CLR,,0.00,WeatherDisplay:10.37,2013-02-13 13:57:00,
2013-02-13 08:58:00,43.9,35.5,29.81,East,92,0.8,6.9,72,0.00,CLR,,0.00,WeatherDisplay:10.37,2013-02-13 13:58:00,
2013-02-13 09:01:00,43.7,35.3,29.81,East,88,0.6,5.8,72,0.00,CLR,,0.00,WeatherDisplay:10.37,2013-02-13 14:01:00,
2013-02-13 09:02:00,44.1,35.6,29.81,East,88,0.0,3.5,72,0.00,CLR,,0.00,WeatherDisplay:10.37,2013-02-13 14:02:00,
2013-02-13 09:03:00,44.1,35.6,29.81,East,88,0.0,0.0,72,0.00,CLR,,0.00,WeatherDisplay:10.37,2013-02-13 14:03:00,
2013-02-13 09:06:00,43.9,35.5,29.81,ESE,119,0.0,3.5,72,0.00,CLR,,0.00,WeatherDisplay:10.37,2013-02-13 14:06:00,
2013-02-13 09:07:00,44.1,35.3,29.81,ESE,119,0.0,0.0,71,0.00,CLR,,0.00,WeatherDisplay:10.37,2013-02-13 14:07:00,
2013-02-13 09:08:00,44.0,35.2,29.81,ESE,119,0.0,0.0,71,0.00,CLR,,0.00,WeatherDisplay:10.37,2013-02-13 14:08:00,
2013-02-13 09:09:00,44.0,35.2,29.81,ESE,119,0.0,0.0,71,0.00,CLR,,0.00,WeatherDisplay:10.37,2013-02-13 14:09:00,
2013-02-13 09:11:00,44.2,35.4,29.81,East,86,0.7,4.6,71,0.00,CLR,,0.00,WeatherDisplay:10.37,2013-02-13 14:11:00,
2013-02-13 09:12:00,44.0,34.8,29.81,East,86,0.0,3.5,70,0.00,CLR,,0.00,WeatherDisplay:10.37,2013-02-13 14:12:00,
2013-02-13 09:13:00,43.9,34.7,29.81,East,86,0.0,3.5,70,0.00,CLR,,0.00,WeatherDisplay:10.37,2013-02-13 14:13:00,
2013-02-13 09:14:00,43.9,34.7,29.80,East,86,0.0,0.0,70,0.00,CLR,,0.00,WeatherDisplay:10.37,2013-02-13 14:14:00,
2013-02-13 09:16:00,43.9,35.5,29.80,East,86,0.0,0.0,72,0.00,CLR,,0.00,WeatherDisplay:10.37,2013-02-13 14:16:00,
2013-02-13 09:18:00,43.6,35.5,29.80,ENE,59,0.1,2.3,73,0.00,CLR,,0.00,WeatherDisplay:10.37,2013-02-13 14:18:00,
2013-02-13 09:19:00,44.0,35.9,29.80,ENE,59,0.0,0.0,73,0.00,CLR,,0.00,WeatherDisplay:10.37,2013-02-13 14:19:00,
2013-02-13 09:21:00,43.8,36.0,29.81,ENE,59,0.0,0.0,74,0.00,CLR,,0.00,WeatherDisplay:10.37,2013-02-13 14:21:00,
2013-02-13 09:23:00,44.1,36.0,29.81,ENE,59,0.0,0.0,73,0.00,CLR,,0.00,WeatherDisplay:10.37,2013-02-13 14:23:00,
2013-02-13 09:24:00,43.7,35.6,29.81,ENE,59,0.0,0.0,73,0.00,CLR,,0.00,WeatherDisplay:10.37,2013-02-13 14:24:00,
2013-02-13 09:26:00,43.7,35.6,29.81,East,86,1.4,4.6,73,0.00,CLR,,0.00,WeatherDisplay:10.37,2013-02-13 14:26:00,
2013-02-13 09:28:00,43.8,36.4,29.80,East,86,0.0,3.5,75,0.00,CLR,,0.00,WeatherDisplay:10.37,2013-02-13 14:28:00,
2013-02-13 09:29:00,43.7,36.6,29.80,East,86,0.0,0.0,76,0.00,CLR,,0.01,WeatherDisplay:10.37,2013-02-13 14:29:00,
2013-02-13 09:32:00,43.9,37.2,29.80,ENE,76,0.5,4.6,77,0.01,RA,,0.01,WeatherDisplay:10.37,2013-02-13 14:32:00,
2013-02-13 09:33:00,43.5,37.4,29.80,ENE,58,0.9,4.6,79,0.01,RA,,0.01,WeatherDisplay:10.37,2013-02-13 14:33:00,
2013-02-13 09:34:00,43.4,38.0,29.79,ENE,58,0.0,0.0,81,0.01,RA,,0.01,WeatherDisplay:10.37,2013-02-13 14:34:00,
2013-02-13 09:37:00,43.3,38.5,29.79,ENE,58,0.0,0.0,83,0.01,RA,,0.01,WeatherDisplay:10.37,2013-02-13 14:37:00,
2013-02-13 09:38:00,43.4,38.9,29.79,ENE,58,0.0,0.0,84,0.01,RA,,0.01,WeatherDisplay:10.37,2013-02-13 14:38:00,
2013-02-13 09:40:00,43.1,38.9,29.79,ENE,58,0.0,0.0,85,0.01,,,0.01,WeatherDisplay:10.37,2013-02-13 14:40:00,
2013-02-13 09:42:00,43.1,39.2,29.80,ENE,58,0.0,0.0,86,0.01,CLR,,0.01,WeatherDisplay:10.37,2013-02-13 14:42:00,
2013-02-13 09:43:00,43.5,39.6,29.80,ENE,58,0.0,0.0,86,0.01,CLR,,0.01,WeatherDisplay:10.37,2013-02-13 14:43:00,
2013-02-13 09:45:00,43.1,39.8,29.79,ENE,58,0.0,0.0,88,0.01,CLR,,0.01,WeatherDisplay:10.37,2013-02-13 14:45:00,
2013-02-13 09:47:00,43.4,40.4,29.80,ENE,58,0.0,0.0,89,0.01,CLR,,0.01,WeatherDisplay:10.37,2013-02-13 14:47:00,
2013-02-13 09:48:00,43.5,40.5,29.80,ENE,58,0.0,0.0,89,0.01,CLR,,0.01,WeatherDisplay:10.37,2013-02-13 14:48:00,
2013-02-13 09:50:00,43.5,40.8,29.80,ENE,58,0.0,0.0,90,0.01,CLR,,0.01,WeatherDisplay:10.37,2013-02-13 14:50:00,
2013-02-13 09:52:00,43.5,40.8,29.80,ENE,58,0.0,0.0,90,0.01,CLR,,0.01,WeatherDisplay:10.37,2013-02-13 14:52:00,
2013-02-13 09:53:00,43.6,40.9,29.80,ENE,58,0.0,0.0,90,0.01,CLR,,0.01,WeatherDisplay:10.37,2013-02-13 14:53:00,
2013-02-13 09:54:00,43.0,40.3,29.80,ENE,58,0.0,0.0,90,0.01,CLR,,0.01,WeatherDisplay:10.37,2013-02-13 14:54:00,
2013-02-13 09:55:00,43.2,40.5,29.80,ENE,58,0.0,0.0,90,0.01,CLR,,0.01,WeatherDisplay:10.37,2013-02-13 14:55:00,
2013-02-13 09:57:00,43.4,40.9,29.79,ENE,58,0.0,0.0,91,0.01,CLR,,0.01,WeatherDisplay:10.37,2013-02-13 14:57:00,
2013-02-13 09:58:00,43.5,41.0,29.79,ENE,58,0.0,0.0,91,0.01,CLR,,0.01,WeatherDisplay:10.37,2013-02-13 14:58:00,
2013-02-13 09:59:00,43.5,41.3,29.79,East,99,1.4,7.3,92,0.01,CLR,,0.01,WeatherDisplay:10.37,2013-02-13 14:59:00,
2013-02-13 10:00:00,43.4,40.9,29.79,East,85,5.4,7.5,91,0.01,CLR,,0.02,WeatherDisplay:10.37,2013-02-13 15:00:00,
2013-02-13 10:02:00,43.4,41.5,29.78,SE,126,2.9,5.8,93,0.02,RA,,0.02,WeatherDisplay:10.37,2013-02-13 15:02:00,
2013-02-13 10:03:00,42.8,40.9,29.78,ESE,104,6.7,10.4,93,0.02,RA,,0.02,WeatherDisplay:10.37,2013-02-13 15:03:00,
2013-02-13 10:04:00,42.9,41.3,29.78,NE,51,4.8,9.2,94,0.02,RA,,0.02,WeatherDisplay:10.37,2013-02-13 15:04:00,
2013-02-13 10:05:00,43.0,41.4,29.78,East,90,1.7,5.2,94,0.03,RA,,0.03,WeatherDisplay:10.37,2013-02-13 15:05:00,
2013-02-13 10:08:00,43.0,41.9,29.78,ESE,103,2.1,6.9,96,0.03,RA,,0.03,WeatherDisplay:10.37,2013-02-13 15:08:00,
2013-02-13 10:09:00,43.3,42.5,29.78,ESE,103,0.0,0.0,97,0.03,RA,,0.03,WeatherDisplay:10.37,2013-02-13 15:09:00,
2013-02-13 10:10:00,43.2,42.4,29.78,East,93,2.4,5.8,97,0.03,RA,,0.03,WeatherDisplay:10.37,2013-02-13 15:10:00,
2013-02-13 10:13:00,43.4,42.9,29.78,East,83,1.6,5.3,98,0.03,RA,,0.03,WeatherDisplay:10.37,2013-02-13 15:13:00,
2013-02-13 10:14:00,43.4,42.9,29.78,SE,124,3.3,5.8,98,0.03,RA,,0.03,WeatherDisplay:10.37,2013-02-13 15:14:00,
2013-02-13 10:15:00,43.3,42.8,29.78,ESE,102,1.3,6.1,98,0.03,RA,,0.03,WeatherDisplay:10.37,2013-02-13 15:15:00,
2013-02-13 10:18:00,43.3,42.8,29.79,East,97,1.2,3.5,98,0.03,CLR,,0.03,WeatherDisplay:10.37,2013-02-13 15:18:00,
2013-02-13 10:19:00,43.4,42.9,29.78,East,97,0.0,3.5,98,0.03,CLR,,0.03,WeatherDisplay:10.37,2013-02-13 15:19:00,
2013-02-13 10:20:00,43.2,42.7,29.78,East,97,0.0,0.0,98,0.03,CLR,,0.03,WeatherDisplay:10.37,2013-02-13 15:20:00,
2013-02-13 10:21:00,43.2,42.7,29.78,East,97,0.0,0.0,98,0.03,CLR,,0.03,WeatherDisplay:10.37,2013-02-13 15:21:00,
2013-02-13 10:23:00,43.5,43.2,29.78,East,97,0.0,0.0,99,0.03,CLR,,0.03,WeatherDisplay:10.37,2013-02-13 15:23:00,
2013-02-13 10:24:00,43.6,43.3,29.77,East,97,0.0,0.0,99,0.03,CLR,,0.03,WeatherDisplay:10.37,2013-02-13 15:24:00,
2013-02-13 10:25:00,43.4,43.1,29.77,East,97,0.0,0.0,99,0.03,CLR,,0.04,WeatherDisplay:10.37,2013-02-13 15:25:00,
2013-02-13 10:26:00,43.1,43.1,29.77,East,97,0.0,0.0,100,0.04,RA,,0.04,WeatherDisplay:10.37,2013-02-13 15:26:00,
2013-02-13 10:28:00,43.0,43.0,29.77,East,97,0.0,0.0,100,0.04,RA,,0.04,WeatherDisplay:10.37,2013-02-13 15:28:00,
2013-02-13 10:29:00,43.0,43.0,29.77,East,97,0.0,0.0,100,0.03,RA,,0.04,WeatherDisplay:10.37,2013-02-13 15:29:00,
2013-02-13 10:30:00,43.0,43.0,29.77,East,97,0.0,0.0,100,0.03,RA,,0.04,WeatherDisplay:10.37,2013-02-13 15:30:00,
2013-02-13 10:31:00,43.1,43.1,29.77,East,97,0.0,0.0,100,0.03,RA,,0.04,WeatherDisplay:10.37,2013-02-13 15:31:00,
2013-02-13 10:33:00,42.9,42.9,29.78,SE,130,0.8,5.8,100,0.03,RA,,0.04,WeatherDisplay:10.37,2013-02-13 15:33:00,
2013-02-13 10:34:00,43.3,43.3,29.78,SE,130,0.0,0.0,100,0.03,RA,,0.04,WeatherDisplay:10.37,2013-02-13 15:34:00,
2013-02-13 10:35:00,43.2,43.2,29.78,SE,130,0.0,0.0,100,0.03,,,0.04,WeatherDisplay:10.37,2013-02-13 15:35:00,
2013-02-13 10:36:00,43.4,43.4,29.78,SE,130,0.0,0.0,100,0.03,,,0.04,WeatherDisplay:10.37,2013-02-13 15:36:00,
2013-02-13 10:38:00,43.2,43.2,29.78,SE,130,0.0,0.0,100,0.03,CLR,,0.04,WeatherDisplay:10.37,2013-02-13 15:38:00,
2013-02-13 10:40:00,43.4,43.4,29.78,SE,130,0.0,0.0,100,0.03,CLR,,0.04,WeatherDisplay:10.37,2013-02-13 15:40:00,
2013-02-13 10:41:00,43.0,43.0,29.78,SE,130,0.0,0.0,100,0.03,CLR,,0.04,WeatherDisplay:10.37,2013-02-13 15:41:00,
2013-02-13 10:43:00,42.7,42.7,29.78,SSE,164,0.0,0.0,100,0.03,,,0.04,WeatherDisplay:10.37,2013-02-13 15:43:00,
2013-02-13 10:45:00,43.1,43.1,29.77,SSE,164,0.0,0.0,100,0.03,,,0.04,WeatherDisplay:10.37,2013-02-13 15:45:00,
2013-02-13 10:46:00,43.1,43.1,29.77,SSE,164,0.0,0.0,100,0.03,,,0.04,WeatherDisplay:10.37,2013-02-13 15:46:00,
2013-02-13 10:49:00,43.0,43.0,29.77,SSE,164,0.0,0.0,100,0.03,,,0.04,WeatherDisplay:10.37,2013-02-13 15:49:00,
2013-02-13 10:50:00,43.0,43.0,29.77,SSE,164,0.0,0.0,100,0.03,,,0.04,WeatherDisplay:10.37,2013-02-13 15:50:00,
2013-02-13 10:51:00,42.8,42.8,29.77,SSE,164,0.0,0.0,100,0.03,,,0.04,WeatherDisplay:10.37,2013-02-13 15:51:00,
2013-02-13 10:54:00,42.8,42.8,29.77,SSE,164,0.0,0.0,100,0.03,,,0.04,WeatherDisplay:10.37,2013-02-13 15:54:00,
2013-02-13 10:55:00,42.9,42.9,29.77,SSE,164,0.0,0.0,100,0.03,,,0.04,WeatherDisplay:10.37,2013-02-13 15:55:00,
2013-02-13 10:56:00,43.1,43.1,29.77,SSE,164,0.0,0.0,100,0.03,,,0.04,WeatherDisplay:10.37,2013-02-13 15:56:00,
2013-02-13 10:59:00,43.0,43.0,29.77,SSE,164,0.0,0.0,100,0.03,,,0.04,WeatherDisplay:10.37,2013-02-13 15:59:00,
2013-02-13 11:00:00,42.8,42.8,29.77,SSE,164,0.0,0.0,100,0.02,,,0.04,WeatherDisplay:10.37,2013-02-13 16:00:00,
2013-02-13 11:01:00,43.2,43.2,29.77,SSE,164,0.0,0.0,100,0.02,,,0.04,WeatherDisplay:10.37,2013-02-13 16:01:00,
2013-02-13 11:04:00,43.0,43.0,29.77,SSE,164,0.0,0.0,100,0.02,,,0.04,WeatherDisplay:10.37,2013-02-13 16:04:00,
2013-02-13 11:05:00,43.1,43.1,29.77,SSE,164,0.0,0.0,100,0.01,,,0.04,WeatherDisplay:10.37,2013-02-13 16:05:00,
2013-02-13 11:06:00,43.0,43.0,29.77,SSE,164,0.2,3.0,100,0.01,,,0.04,WeatherDisplay:10.37,2013-02-13 16:06:00,
2013-02-13 11:09:00,43.0,43.0,29.77,SSE,164,0.0,0.0,100,0.01,,,0.04,WeatherDisplay:10.37,2013-02-13 16:09:00,
2013-02-13 11:11:00,43.1,43.1,29.76,SSE,164,0.0,0.0,100,0.01,,,0.04,WeatherDisplay:10.37,2013-02-13 16:11:00,
2013-02-13 11:12:00,42.9,42.9,29.76,SSE,164,0.0,0.0,100,0.01,,,0.04,WeatherDisplay:10.37,2013-02-13 16:12:00,
2013-02-13 11:14:00,43.2,43.2,29.77,SSE,164,0.0,0.0,100,0.01,,,0.04,WeatherDisplay:10.37,2013-02-13 16:14:00,
2013-02-13 11:16:00,43.3,43.3,29.76,SSE,164,0.0,0.0,100,0.01,,,0.04,WeatherDisplay:10.37,2013-02-13 16:16:00,
2013-02-13 11:17:00,43.1,43.1,29.76,ESE,113,1.8,4.6,100,0.01,,,0.04,WeatherDisplay:10.37,2013-02-13 16:17:00,
2013-02-13 11:19:00,43.2,43.2,29.76,ESE,107,0.0,4.6,100,0.01,,,0.04,WeatherDisplay:10.37,2013-02-13 16:19:00,
2013-02-13 11:21:00,43.5,43.5,29.76,ESE,107,0.0,0.0,100,0.01,CLR,,0.04,WeatherDisplay:10.37,2013-02-13 16:21:00,
2013-02-13 11:22:00,43.7,43.7,29.76,SE,144,0.8,2.4,100,0.01,CLR,,0.04,WeatherDisplay:10.37,2013-02-13 16:22:00,
2013-02-13 11:24:00,43.6,43.6,29.76,SE,144,0.0,0.0,100,0.01,,,0.04,WeatherDisplay:10.37,2013-02-13 16:24:00,
2013-02-13 11:26:00,43.2,43.2,29.76,SE,144,0.0,0.0,100,0.00,CLR,,0.04,WeatherDisplay:10.37,2013-02-13 16:26:00,
2013-02-13 11:28:00,43.6,43.6,29.77,SE,144,0.0,0.0,100,0.00,,,0.04,WeatherDisplay:10.37,2013-02-13 16:28:00,
2013-02-13 11:29:00,43.5,43.5,29.77,SE,144,0.0,0.0,100,0.00,,,0.04,WeatherDisplay:10.37,2013-02-13 16:29:00,
2013-02-13 11:31:00,43.1,43.1,29.76,SE,134,3.9,6.9,100,0.00,,,0.04,WeatherDisplay:10.37,2013-02-13 16:31:00,
2013-02-13 11:33:00,43.2,43.2,29.76,ESE,121,0.1,4.6,100,0.00,,,0.04,WeatherDisplay:10.37,2013-02-13 16:33:00,
2013-02-13 11:34:00,43.5,43.5,29.76,East,83,0.7,6.0,100,0.00,,,0.04,WeatherDisplay:10.37,2013-02-13 16:34:00,
2013-02-13 11:36:00,43.3,43.3,29.75,ENE,66,0.0,3.5,100,0.01,RA,,0.05,WeatherDisplay:10.37,2013-02-13 16:36:00,
2013-02-13 11:38:00,43.3,43.3,29.75,ENE,66,0.0,0.0,100,0.01,RA,,0.05,WeatherDisplay:10.37,2013-02-13 16:38:00,
2013-02-13 11:39:00,43.4,43.4,29.75,ESE,102,0.8,5.0,100,0.01,RA,,0.05,WeatherDisplay:10.37,2013-02-13 16:39:00,
2013-02-13 11:41:00,43.5,43.5,29.75,ESE,104,2.5,5.8,100,0.01,RA,,0.05,WeatherDisplay:10.37,2013-02-13 16:41:00,
2013-02-13 11:43:00,43.2,43.2,29.75,SE,127,2.5,7.0,100,0.01,RA,,0.05,WeatherDisplay:10.37,2013-02-13 16:43:00,
2013-02-13 11:44:00,43.5,43.5,29.74,ESE,121,4.4,6.9,100,0.01,RA,,0.05,WeatherDisplay:10.37,2013-02-13 16:44:00,
2013-02-13 11:46:00,43.5,43.5,29.74,SE,124,3.8,6.9,100,0.01,,,0.05,WeatherDisplay:10.37,2013-02-13 16:46:00,
2013-02-13 11:48:00,43.3,43.3,29.75,SSE,152,1.6,6.9,100,0.01,CLR,,0.05,WeatherDisplay:10.37,2013-02-13 16:48:00,
2013-02-13 11:49:00,43.4,43.4,29.74,ESE,109,4.2,4.6,100,0.01,CLR,,0.05,WeatherDisplay:10.37,2013-02-13 16:49:00,
2013-02-13 11:51:00,43.4,43.4,29.74,ENE,72,2.1,6.9,100,0.01,CLR,,0.05,WeatherDisplay:10.37,2013-02-13 16:51:00,
2013-02-13 11:54:00,43.5,43.5,29.73,SE,128,1.1,0.0,100,0.01,CLR,,0.05,WeatherDisplay:10.37,2013-02-13 16:54:00,
2013-02-13 11:55:00,43.5,43.5,29.74,SE,128,0.0,0.0,100,0.01,CLR,,0.05,WeatherDisplay:10.37,2013-02-13 16:55:00,
2013-02-13 11:56:00,43.8,43.8,29.74,SE,137,3.3,5.8,100,0.01,CLR,,0.05,WeatherDisplay:10.37,2013-02-13 16:56:00,
2013-02-13 11:59:00,43.6,43.6,29.74,ESE,119,3.1,4.6,100,0.01,CLR,,0.05,WeatherDisplay:10.37,2013-02-13 16:59:00,
2013-02-13 12:00:00,43.3,43.3,29.74,ESE,102,2.8,6.3,100,0.01,CLR,,0.05,WeatherDisplay:10.37,2013-02-13 17:00:00,
2013-02-13 12:01:00,43.0,43.0,29.74,ESE,107,6.6,8.1,100,0.01,CLR,,0.05,WeatherDisplay:10.37,2013-02-13 17:01:00,
2013-02-13 12:02:00,43.4,43.4,29.74,ESE,117,6.6,10.4,100,0.01,CLR,,0.05,WeatherDisplay:10.37,2013-02-13 17:02:00,
2013-02-13 12:04:00,43.5,43.5,29.74,SE,134,4.6,6.9,100,0.01,CLR,,0.05,WeatherDisplay:10.37,2013-02-13 17:04:00,
2013-02-13 12:05:00,43.9,43.9,29.74,ESE,110,1.6,5.8,100,0.01,CLR,,0.05,WeatherDisplay:10.37,2013-02-13 17:05:00,
2013-02-13 12:07:00,43.7,43.7,29.74,ESE,109,0.3,5.8,100,0.01,CLR,,0.05,WeatherDisplay:10.37,2013-02-13 17:07:00,
2013-02-13 12:09:00,43.6,43.6,29.74,ESE,109,2.5,6.2,100,0.01,CLR,,0.05,WeatherDisplay:10.37,2013-02-13 17:09:00,
2013-02-13 12:10:00,43.5,43.5,29.74,East,79,5.5,8.1,100,0.01,CLR,,0.05,WeatherDisplay:10.37,2013-02-13 17:10:00,
2013-02-13 12:12:00,43.7,43.7,29.73,East,79,0.0,0.0,100,0.01,CLR,,0.05,WeatherDisplay:10.37,2013-02-13 17:12:00,
2013-02-13 12:14:00,43.4,43.4,29.73,ESE,106,0.8,5.7,100,0.01,CLR,,0.05,WeatherDisplay:10.37,2013-02-13 17:14:00,
2013-02-13 12:15:00,43.0,43.0,29.73,East,100,5.8,6.9,100,0.01,CLR,,0.05,WeatherDisplay:10.37,2013-02-13 17:15:00,
2013-02-13 12:17:00,43.1,43.1,29.73,East,100,0.0,4.6,100,0.02,RA,,0.06,WeatherDisplay:10.37,2013-02-13 17:17:00,
2013-02-13 12:19:00,43.4,43.4,29.72,ESE,103,4.5,5.8,100,0.02,RA,,0.06,WeatherDisplay:10.37,2013-02-13 17:19:00,
2013-02-13 12:21:00,43.6,43.6,29.72,ESE,103,3.3,8.8,100,0.02,RA,,0.06,WeatherDisplay:10.37,2013-02-13 17:21:00,
2013-02-13 12:22:00,43.4,43.4,29.72,ESE,113,5.7,9.2,100,0.02,RA,,0.06,WeatherDisplay:10.37,2013-02-13 17:22:00,
2013-02-13 12:24:00,43.5,43.5,29.72,NE,38,1.8,5.8,100,0.02,RA,,0.06,WeatherDisplay:10.37,2013-02-13 17:24:00,
2013-02-13 12:26:00,43.3,43.3,29.72,East,90,3.9,8.1,100,0.02,RA,,0.06,WeatherDisplay:10.37,2013-02-13 17:26:00,
2013-02-13 12:27:00,43.4,43.4,29.72,East,83,1.4,5.8,100,0.02,,,0.06,WeatherDisplay:10.37,2013-02-13 17:27:00,
2013-02-13 12:29:00,43.7,43.7,29.72,ESE,121,2.4,7.4,100,0.02,CLR,,0.06,WeatherDisplay:10.37,2013-02-13 17:29:00,
2013-02-13 12:31:00,43.7,43.7,29.71,ESE,114,2.8,5.8,100,0.02,CLR,,0.06,WeatherDisplay:10.37,2013-02-13 17:31:00,
2013-02-13 12:32:00,43.6,43.6,29.71,ESE,114,0.0,3.5,100,0.02,CLR,,0.06,WeatherDisplay:10.37,2013-02-13 17:32:00,
2013-02-13 12:34:00,43.6,43.6,29.71,ESE,114,0.0,0.0,100,0.02,CLR,,0.06,WeatherDisplay:10.37,2013-02-13 17:34:00,
2013-02-13 12:36:00,43.6,43.6,29.71,ESE,114,0.0,0.0,100,0.01,CLR,,0.06,WeatherDisplay:10.37,2013-02-13 17:36:00,
2013-02-13 12:37:00,43.6,43.6,29.71,ESE,114,0.0,0.0,100,0.01,CLR,,0.06,WeatherDisplay:10.37,2013-02-13 17:37:00,
2013-02-13 12:38:00,43.6,43.6,29.71,ESE,114,0.0,0.0,100,0.01,CLR,,0.06,WeatherDisplay:10.37,2013-02-13 17:38:00,
2013-02-13 12:40:00,43.8,43.8,29.71,ESE,114,0.0,0.0,100,0.01,CLR,,0.06,WeatherDisplay:10.37,2013-02-13 17:40:00,
2013-02-13 12:41:00,43.6,43.6,29.70,ESE,114,0.0,0.0,100,0.01,CLR,,0.06,WeatherDisplay:10.37,2013-02-13 17:41:00,
2013-02-13 12:42:00,43.7,43.7,29.70,ESE,114,0.0,0.0,100,0.01,CLR,,0.06,WeatherDisplay:10.37,2013-02-13 17:42:00,
2013-02-13 12:43:00,43.7,43.7,29.70,ESE,114,0.0,0.0,100,0.01,CLR,,0.06,WeatherDisplay:10.37,2013-02-13 17:43:00,
2013-02-13 12:45:00,43.8,43.8,29.70,ESE,114,0.0,0.0,100,0.01,CLR,,0.06,WeatherDisplay:10.37,2013-02-13 17:45:00,
2013-02-13 12:46:00,43.8,43.8,29.70,ESE,114,0.0,0.0,100,0.01,CLR,,0.06,WeatherDisplay:10.37,2013-02-13 17:46:00,
2013-02-13 12:47:00,43.7,43.7,29.70,ESE,114,0.0,0.0,100,0.01,CLR,,0.06,WeatherDisplay:10.37,2013-02-13 17:47:00,
2013-02-13 12:48:00,43.8,43.8,29.70,ESE,114,0.0,0.0,100,0.01,CLR,,0.06,WeatherDisplay:10.37,2013-02-13 17:48:00,
2013-02-13 12:50:00,43.5,43.5,29.70,ESE,114,0.0,0.0,100,0.01,CLR,,0.06,WeatherDisplay:10.37,2013-02-13 17:50:00,
2013-02-13 12:51:00,43.9,43.9,29.69,ESE,114,0.0,0.0,100,0.01,CLR,,0.06,WeatherDisplay:10.37,2013-02-13 17:51:00,
2013-02-13 12:53:00,43.7,43.7,29.69,ESE,114,0.0,0.0,100,0.01,CLR,,0.06,WeatherDisplay:10.37,2013-02-13 17:53:00,
2013-02-13 12:55:00,43.9,43.9,29.69,ESE,114,0.0,0.0,100,0.01,CLR,,0.06,WeatherDisplay:10.37,2013-02-13 17:55:00,
2013-02-13 12:57:00,43.6,43.6,29.69,ESE,114,0.0,0.0,100,0.01,CLR,,0.06,WeatherDisplay:10.37,2013-02-13 17:57:00,
2013-02-13 12:58:00,43.6,43.6,29.69,ESE,114,0.0,0.0,100,0.01,CLR,,0.06,WeatherDisplay:10.37,2013-02-13 17:58:00,
2013-02-13 13:00:00,44.1,44.1,29.69,ESE,114,0.0,0.0,100,0.01,CLR,,0.06,WeatherDisplay:10.37,2013-02-13 18:00:00,
2013-02-13 13:02:00,43.7,43.7,29.69,ESE,114,0.0,0.0,100,0.01,CLR,,0.06,WeatherDisplay:10.37,2013-02-13 18:02:00,
2013-02-13 13:03:00,43.6,43.6,29.69,ESE,114,0.0,0.0,100,0.01,CLR,,0.06,WeatherDisplay:10.37,2013-02-13 18:03:00,
2013-02-13 13:05:00,43.9,43.9,29.68,ESE,114,0.0,0.0,100,0.01,CLR,,0.06,WeatherDisplay:10.37,2013-02-13 18:05:00,
2013-02-13 13:07:00,43.4,43.4,29.68,ESE,114,0.0,0.0,100,0.01,,,0.06,WeatherDisplay:10.37,2013-02-13 18:07:00,
2013-02-13 13:08:00,43.7,43.7,29.68,ESE,114,0.0,0.0,100,0.01,,,0.06,WeatherDisplay:10.37,2013-02-13 18:08:00,
2013-02-13 13:10:00,43.5,43.5,29.67,ESE,114,0.0,0.0,100,0.01,CLR,,0.06,WeatherDisplay:10.37,2013-02-13 18:10:00,
2013-02-13 13:12:00,43.9,43.9,29.68,ESE,114,0.0,0.0,100,0.01,,,0.06,WeatherDisplay:10.37,2013-02-13 18:12:00,
2013-02-13 13:13:00,43.8,43.8,29.68,ESE,114,0.0,0.0,100,0.01,CLR,,0.06,WeatherDisplay:10.37,2013-02-13 18:13:00,
2013-02-13 13:15:00,43.8,43.8,29.68,ESE,114,0.0,0.0,100,0.01,CLR,,0.06,WeatherDisplay:10.37,2013-02-13 18:15:00,
2013-02-13 13:17:00,44.1,44.1,29.68,ESE,114,0.0,0.0,100,0.00,CLR,,0.06,WeatherDisplay:10.37,2013-02-13 18:17:00,
2013-02-13 13:18:00,44.0,44.0,29.67,ESE,114,0.0,0.0,100,0.00,CLR,,0.06,WeatherDisplay:10.37,2013-02-13 18:18:00,
2013-02-13 13:20:00,43.9,43.9,29.67,ESE,114,0.0,0.0,100,0.00,,,0.06,WeatherDisplay:10.37,2013-02-13 18:20:00,
2013-02-13 13:22:00,43.9,43.9,29.67,ESE,114,0.0,0.0,100,0.00,,,0.06,WeatherDisplay:10.37,2013-02-13 18:22:00,
2013-02-13 13:23:00,43.6,43.6,29.67,ESE,114,0.0,0.0,100,0.00,,,0.06,WeatherDisplay:10.37,2013-02-13 18:23:00,
2013-02-13 13:25:00,44.0,44.0,29.67,ESE,114,0.0,0.0,100,0.00,,,0.06,WeatherDisplay:10.37,2013-02-13 18:25:00,
2013-02-13 13:28:00,43.6,43.6,29.67,ESE,114,0.0,0.0,100,0.00,,,0.06,WeatherDisplay:10.37,2013-02-13 18:28:00,
2013-02-13 13:29:00,43.6,43.6,29.67,ESE,114,0.0,0.0,100,0.00,,,0.06,WeatherDisplay:10.37,2013-02-13 18:29:00,
2013-02-13 13:31:00,43.9,43.9,29.67,ESE,114,0.0,0.0,100,0.00,,,0.06,WeatherDisplay:10.37,2013-02-13 18:31:00,
2013-02-13 13:33:00,43.7,43.7,29.67,ESE,114,0.0,0.0,100,0.00,,,0.06,WeatherDisplay:10.37,2013-02-13 18:33:00,
2013-02-13 13:34:00,43.8,43.8,29.67,ESE,114,0.0,0.0,100,0.00,,,0.06,WeatherDisplay:10.37,2013-02-13 18:34:00,
2013-02-13 13:36:00,43.5,43.5,29.67,ESE,114,0.0,0.0,100,0.00,,,0.06,WeatherDisplay:10.37,2013-02-13 18:36:00,
2013-02-13 13:38:00,43.8,43.8,29.67,ESE,114,0.0,0.0,100,0.00,,,0.06,WeatherDisplay:10.37,2013-02-13 18:38:00,
2013-02-13 13:40:00,43.8,43.8,29.66,ESE,114,0.0,0.0,100,0.00,,,0.06,WeatherDisplay:10.37,2013-02-13 18:40:00,
2013-02-13 13:41:00,43.6,43.6,29.66,ESE,114,0.0,0.0,100,0.00,,,0.06,WeatherDisplay:10.37,2013-02-13 18:41:00,
2013-02-13 13:43:00,43.7,43.7,29.66,ESE,114,0.0,0.0,100,0.00,,,0.06,WeatherDisplay:10.37,2013-02-13 18:43:00,
2013-02-13 13:45:00,43.5,43.5,29.66,ESE,114,0.0,0.0,100,0.00,,,0.06,WeatherDisplay:10.37,2013-02-13 18:45:00,
2013-02-13 13:46:00,44.0,44.0,29.66,ESE,114,0.0,0.0,100,0.00,,,0.06,WeatherDisplay:10.37,2013-02-13 18:46:00,
2013-02-13 13:48:00,43.5,43.5,29.66,ESE,114,0.0,0.0,100,0.00,,,0.06,WeatherDisplay:10.37,2013-02-13 18:48:00,
2013-02-13 13:49:00,43.3,43.3,29.65,ESE,114,0.0,0.0,100,0.00,,,0.06,WeatherDisplay:10.37,2013-02-13 18:49:00,
2013-02-13 13:50:00,43.3,43.3,29.65,ESE,114,0.0,0.0,100,0.00,,,0.06,WeatherDisplay:10.37,2013-02-13 18:50:00,
2013-02-13 13:51:00,43.4,43.4,29.65,ESE,114,0.0,0.0,100,0.00,,,0.06,WeatherDisplay:10.37,2013-02-13 18:51:00,
2013-02-13 13:53:00,43.5,43.5,29.65,ESE,114,0.0,0.0,100,0.01,RA,,0.07,WeatherDisplay:10.37,2013-02-13 18:53:00,
2013-02-13 13:54:00,43.4,43.4,29.65,ESE,114,0.0,0.0,100,0.01,RA,,0.07,WeatherDisplay:10.37,2013-02-13 18:54:00,
2013-02-13 13:55:00,43.6,43.6,29.65,ESE,114,0.0,0.0,100,0.01,RA,,0.07,WeatherDisplay:10.37,2013-02-13 18:55:00,
2013-02-13 13:56:00,43.5,43.5,29.65,ESE,114,0.0,0.0,100,0.01,RA,,0.07,WeatherDisplay:10.37,2013-02-13 18:56:00,
2013-02-13 13:58:00,43.6,43.6,29.65,ESE,114,0.0,0.0,100,0.01,RA,,0.07,WeatherDisplay:10.37,2013-02-13 18:58:00,
2013-02-13 13:59:00,43.8,43.8,29.65,ESE,114,0.0,0.0,100,0.01,RA,,0.07,WeatherDisplay:10.37,2013-02-13 18:59:00,
2013-02-13 14:00:00,44.0,44.0,29.65,ESE,114,0.0,0.0,100,0.01,RA,,0.07,WeatherDisplay:10.37,2013-02-13 19:00:00,
2013-02-13 14:01:00,43.7,43.7,29.65,ESE,114,0.0,0.0,100,0.01,RA,,0.07,WeatherDisplay:10.37,2013-02-13 19:01:00,
2013-02-13 14:03:00,43.9,43.9,29.65,ESE,114,0.0,0.0,100,0.01,,,0.07,WeatherDisplay:10.37,2013-02-13 19:03:00,
2013-02-13 14:04:00,43.9,43.9,29.65,ESE,114,0.0,0.0,100,0.01,,,0.07,WeatherDisplay:10.37,2013-02-13 19:04:00,
2013-02-13 14:05:00,44.0,44.0,29.65,ESE,114,0.0,0.0,100,0.01,,,0.07,WeatherDisplay:10.37,2013-02-13 19:05:00,
2013-02-13 14:06:00,43.8,43.8,29.65,ESE,114,0.0,0.0,100,0.01,CLR,,0.07,WeatherDisplay:10.37,2013-02-13 19:06:00,
2013-02-13 14:09:00,43.9,43.9,29.65,ESE,114,0.0,0.0,100,0.01,CLR,,0.07,WeatherDisplay:10.37,2013-02-13 19:09:00,
2013-02-13 14:10:00,43.6,43.6,29.65,ESE,114,0.0,0.0,100,0.01,CLR,,0.07,WeatherDisplay:10.37,2013-02-13 19:10:00,
2013-02-13 14:12:00,44.0,44.0,29.65,ESE,114,0.0,0.0,100,0.01,CLR,,0.07,WeatherDisplay:10.37,2013-02-13 19:12:00,
2013-02-13 14:14:00,43.5,43.5,29.65,ESE,114,0.0,0.0,100,0.01,,,0.07,WeatherDisplay:10.37,2013-02-13 19:14:00,
2013-02-13 14:15:00,43.8,43.8,29.65,ESE,114,0.0,0.0,100,0.01,,,0.07,WeatherDisplay:10.37,2013-02-13 19:15:00,
2013-02-13 14:17:00,43.7,43.7,29.65,ESE,114,0.0,0.0,100,0.01,CLR,,0.07,WeatherDisplay:10.37,2013-02-13 19:17:00,
2013-02-13 14:19:00,43.8,43.8,29.65,ESE,114,0.0,0.0,100,0.01,,,0.07,WeatherDisplay:10.37,2013-02-13 19:19:00,
2013-02-13 14:20:00,43.8,43.8,29.65,ESE,114,0.0,0.0,100,0.01,,,0.07,WeatherDisplay:10.37,2013-02-13 19:20:00,
2013-02-13 14:22:00,43.6,43.6,29.64,ESE,114,0.0,0.0,100,0.02,RA,,0.08,WeatherDisplay:10.37,2013-02-13 19:22:00,
2013-02-13 14:24:00,43.8,43.8,29.64,ESE,114,0.0,0.0,100,0.02,RA,,0.08,WeatherDisplay:10.37,2013-02-13 19:24:00,
2013-02-13 14:25:00,43.7,43.7,29.64,ESE,114,0.0,0.0,100,0.02,RA,,0.08,WeatherDisplay:10.37,2013-02-13 19:25:00,
2013-02-13 14:27:00,43.5,43.5,29.64,ESE,114,0.0,0.0,100,0.02,RA,,0.08,WeatherDisplay:10.37,2013-02-13 19:27:00,
2013-02-13 14:29:00,43.7,43.7,29.63,ESE,114,0.0,0.0,100,0.02,RA,,0.08,WeatherDisplay:10.37,2013-02-13 19:29:00,
2013-02-13 14:30:00,43.8,43.8,29.63,ESE,114,0.0,0.0,100,0.02,RA,,0.08,WeatherDisplay:10.37,2013-02-13 19:30:00,
2013-02-13 14:32:00,44.0,44.0,29.63,ESE,114,0.0,0.0,100,0.02,CLR,,0.08,WeatherDisplay:10.37,2013-02-13 19:32:00,
2013-02-13 14:34:00,44.0,44.0,29.63,ESE,114,0.0,0.0,100,0.02,CLR,,0.08,WeatherDisplay:10.37,2013-02-13 19:34:00,
2013-02-13 14:35:00,43.8,43.8,29.63,ESE,114,0.0,0.0,100,0.02,CLR,,0.08,WeatherDisplay:10.37,2013-02-13 19:35:00,
2013-02-13 14:37:00,44.3,44.3,29.63,ESE,114,0.0,0.0,100,0.02,CLR,,0.08,WeatherDisplay:10.37,2013-02-13 19:37:00,
2013-02-13 14:39:00,44.2,44.2,29.63,ESE,114,0.0,0.0,100,0.02,CLR,,0.08,WeatherDisplay:10.37,2013-02-13 19:39:00,
2013-02-13 14:40:00,44.1,44.1,29.63,ESE,114,0.0,0.0,100,0.02,CLR,,0.08,WeatherDisplay:10.37,2013-02-13 19:40:00,
2013-02-13 14:41:00,44.0,44.0,29.63,ESE,114,0.0,0.0,100,0.02,CLR,,0.08,WeatherDisplay:10.37,2013-02-13 19:41:00,
2013-02-13 14:42:00,43.9,43.9,29.64,ESE,114,0.0,0.0,100,0.02,CLR,,0.08,WeatherDisplay:10.37,2013-02-13 19:42:00,
2013-02-13 14:44:00,44.0,44.0,29.64,ESE,114,0.0,0.0,100,0.02,CLR,,0.08,WeatherDisplay:10.37,2013-02-13 19:44:00,
2013-02-13 14:45:00,44.3,44.3,29.64,ESE,114,0.0,0.0,100,0.02,CLR,,0.09,WeatherDisplay:10.37,2013-02-13 19:45:00,
2013-02-13 14:46:00,44.4,44.4,29.64,ESE,114,0.0,0.0,100,0.03,RA,,0.09,WeatherDisplay:10.37,2013-02-13 19:46:00,
2013-02-13 14:48:00,43.9,43.9,29.64,ESE,114,0.0,0.0,100,0.03,RA,,0.09,WeatherDisplay:10.37,2013-02-13 19:48:00,
2013-02-13 14:50:00,44.1,44.1,29.64,ESE,114,0.0,0.0,100,0.03,RA,,0.09,WeatherDisplay:10.37,2013-02-13 19:50:00,
2013-02-13 14:51:00,43.9,43.9,29.63,ESE,114,0.0,0.0,100,0.03,RA,,0.09,WeatherDisplay:10.37,2013-02-13 19:51:00,
2013-02-13 14:53:00,44.1,44.1,29.63,East,80,0.2,2.3,100,0.04,RA,,0.10,WeatherDisplay:10.37,2013-02-13 19:53:00,
2013-02-13 14:55:00,44.0,44.0,29.63,East,80,0.0,0.0,100,0.03,RA,,0.10,WeatherDisplay:10.37,2013-02-13 19:55:00,
2013-02-13 14:56:00,44.3,44.3,29.63,East,80,0.0,0.0,100,0.03,RA,,0.10,WeatherDisplay:10.37,2013-02-13 19:56:00,
2013-02-13 14:58:00,44.1,44.1,29.63,ESE,116,2.0,6.6,100,0.04,RA,,0.11,WeatherDisplay:10.37,2013-02-13 19:58:00,
2013-02-13 15:00:00,44.0,44.0,29.63,ENE,65,2.2,8.1,100,0.04,RA,,0.11,WeatherDisplay:10.37,2013-02-13 20:00:00,
2013-02-13 15:01:00,44.1,44.1,29.63,SE,126,5.4,6.9,100,0.04,RA,,0.11,WeatherDisplay:10.37,2013-02-13 20:01:00,
2013-02-13 15:03:00,44.4,44.4,29.63,ESE,110,0.7,6.9,100,0.04,RA,,0.11,WeatherDisplay:10.37,2013-02-13 20:03:00,
2013-02-13 15:05:00,43.8,43.8,29.63,SE,126,3.9,6.9,100,0.04,RA,,0.11,WeatherDisplay:10.37,2013-02-13 20:05:00,
2013-02-13 15:06:00,43.7,43.7,29.63,SE,126,0.0,2.3,100,0.04,RA,,0.11,WeatherDisplay:10.37,2013-02-13 20:06:00,
2013-02-13 15:08:00,44.0,44.0,29.63,SE,140,7.5,9.2,100,0.04,,,0.11,WeatherDisplay:10.37,2013-02-13 20:08:00,
2013-02-13 15:10:00,43.7,43.7,29.63,ESE,123,5.4,6.8,100,0.04,CLR,,0.11,WeatherDisplay:10.37,2013-02-13 20:10:00,
2013-02-13 15:12:00,44.0,44.0,29.63,ESE,112,2.6,8.1,100,0.04,CLR,,0.11,WeatherDisplay:10.37,2013-02-13 20:12:00,
2013-02-13 15:13:00,43.6,43.6,29.63,ENE,76,4.5,6.2,100,0.04,CLR,,0.11,WeatherDisplay:10.37,2013-02-13 20:13:00,
2013-02-13 15:15:00,43.3,43.3,29.64,East,97,3.7,6.9,100,0.04,,,0.11,WeatherDisplay:10.37,2013-02-13 20:15:00,
2013-02-13 15:17:00,43.4,43.4,29.64,ENE,65,3.5,5.8,100,0.04,,,0.11,WeatherDisplay:10.37,2013-02-13 20:17:00,
2013-02-13 15:18:00,43.4,43.4,29.64,ENE,65,0.0,4.6,100,0.04,,,0.11,WeatherDisplay:10.37,2013-02-13 20:18:00,
2013-02-13 15:20:00,43.2,43.2,29.64,ENE,65,0.0,0.0,100,0.03,,,0.11,WeatherDisplay:10.37,2013-02-13 20:20:00,
2013-02-13 15:22:00,43.1,43.1,29.65,ENE,65,0.0,0.0,100,0.03,,,0.11,WeatherDisplay:10.37,2013-02-13 20:22:00,
2013-02-13 15:23:00,43.2,43.2,29.65,ENE,65,0.0,0.0,100,0.03,,,0.11,WeatherDisplay:10.37,2013-02-13 20:23:00,
2013-02-13 15:25:00,43.3,43.3,29.64,ENE,65,0.0,0.0,100,0.03,,,0.11,WeatherDisplay:10.37,2013-02-13 20:25:00,
2013-02-13 15:27:00,43.4,43.4,29.64,ENE,65,0.0,0.0,100,0.03,,,0.11,WeatherDisplay:10.37,2013-02-13 20:27:00,
2013-02-13 15:28:00,43.6,43.6,29.64,ENE,65,0.0,0.0,100,0.03,,,0.11,WeatherDisplay:10.37,2013-02-13 20:28:00,
2013-02-13 15:31:00,43.1,43.1,29.65,ENE,65,0.0,0.0,100,0.03,,,0.11,WeatherDisplay:10.37,2013-02-13 20:31:00,
2013-02-13 15:32:00,43.6,43.6,29.65,ENE,65,0.0,0.0,100,0.03,,,0.11,WeatherDisplay:10.37,2013-02-13 20:32:00,
2013-02-13 15:33:00,43.3,43.3,29.64,NNE,20,0.0,0.0,100,0.03,,,0.11,WeatherDisplay:10.37,2013-02-13 20:33:00,
2013-02-13 15:36:00,43.6,43.6,29.64,NNE,20,0.0,0.0,100,0.03,,,0.12,WeatherDisplay:10.37,2013-02-13 20:36:00,
2013-02-13 15:37:00,43.4,43.4,29.64,NNE,20,0.0,0.0,100,0.04,RA,,0.12,WeatherDisplay:10.37,2013-02-13 20:37:00,
2013-02-13 15:38:00,43.3,43.3,29.64,NNE,20,0.0,0.0,100,0.04,RA,,0.12,WeatherDisplay:10.37,2013-02-13 20:38:00,
2013-02-13 15:39:00,43.4,43.4,29.64,NNE,20,0.0,0.0,100,0.04,RA,,0.12,WeatherDisplay:10.37,2013-02-13 20:39:00,
2013-02-13 15:41:00,43.5,43.5,29.64,NNE,20,0.0,0.0,100,0.04,RA,,0.12,WeatherDisplay:10.37,2013-02-13 20:41:00,
2013-02-13 15:42:00,43.0,43.0,29.64,NNE,20,0.0,0.0,100,0.04,RA,,0.12,WeatherDisplay:10.37,2013-02-13 20:42:00,
2013-02-13 15:43:00,43.0,43.0,29.64,NNE,20,0.0,0.0,100,0.04,RA,,0.12,WeatherDisplay:10.37,2013-02-13 20:43:00,
2013-02-13 15:44:00,43.3,43.3,29.64,East,90,0.7,0.0,100,0.04,RA,,0.12,WeatherDisplay:10.37,2013-02-13 20:44:00,
2013-02-13 15:46:00,43.2,43.2,29.64,East,90,0.0,0.0,100,0.03,RA,,0.12,WeatherDisplay:10.37,2013-02-13 20:46:00,
2013-02-13 15:47:00,43.2,43.2,29.64,East,90,0.0,0.0,100,0.03,,,0.12,WeatherDisplay:10.37,2013-02-13 20:47:00,
2013-02-13 15:48:00,43.0,43.0,29.64,East,90,0.0,0.0,100,0.03,,,0.12,WeatherDisplay:10.37,2013-02-13 20:48:00,
2013-02-13 15:49:00,43.0,43.0,29.64,East,90,0.0,0.0,100,0.03,CLR,,0.12,WeatherDisplay:10.37,2013-02-13 20:49:00,
2013-02-13 15:51:00,42.5,42.5,29.64,ENE,59,0.0,0.0,100,0.03,CLR,,0.12,WeatherDisplay:10.37,2013-02-13 20:51:00,
2013-02-13 15:53:00,43.2,43.2,29.64,ENE,59,0.0,0.0,100,0.02,CLR,,0.12,WeatherDisplay:10.37,2013-02-13 20:53:00,
2013-02-13 15:54:00,42.9,42.9,29.64,ENE,59,0.0,0.0,100,0.02,,,0.12,WeatherDisplay:10.37,2013-02-13 20:54:00,
2013-02-13 15:56:00,42.8,42.8,29.64,ENE,59,0.0,0.0,100,0.02,,,0.12,WeatherDisplay:10.37,2013-02-13 20:56:00,
2013-02-13 15:58:00,42.6,42.6,29.65,ENE,59,0.0,0.0,100,0.01,,,0.12,WeatherDisplay:10.37,2013-02-13 20:58:00,
2013-02-13 15:59:00,42.6,42.6,29.65,ENE,59,0.0,0.0,100,0.01,,,0.12,WeatherDisplay:10.37,2013-02-13 20:59:00,
2013-02-13 16:01:00,42.9,42.9,29.64,ENE,59,0.0,0.0,100,0.01,,,0.12,WeatherDisplay:10.37,2013-02-13 21:01:00,
2013-02-13 16:03:00,43.0,43.0,29.65,ENE,59,0.0,0.0,100,0.01,,,0.12,WeatherDisplay:10.37,2013-02-13 21:03:00,
2013-02-13 16:04:00,43.0,43.0,29.64,ENE,59,0.0,0.0,100,0.01,,,0.12,WeatherDisplay:10.37,2013-02-13 21:04:00,
2013-02-13 16:06:00,42.9,42.9,29.64,East,89,0.6,3.5,100,0.01,,,0.12,WeatherDisplay:10.37,2013-02-13 21:06:00,
2013-02-13 16:08:00,42.9,42.9,29.64,East,100,2.3,5.8,100,0.01,,,0.12,WeatherDisplay:10.37,2013-02-13 21:08:00,
2013-02-13 16:09:00,42.9,42.9,29.64,ESE,107,0.4,4.6,100,0.01,,,0.12,WeatherDisplay:10.37,2013-02-13 21:09:00,
2013-02-13 16:11:00,42.9,42.9,29.64,ENE,75,3.4,6.9,100,0.01,,,0.12,WeatherDisplay:10.37,2013-02-13 21:11:00,
2013-02-13 16:13:00,42.8,42.8,29.64,SE,130,3.8,6.9,100,0.01,,,0.12,WeatherDisplay:10.37,2013-02-13 21:13:00,
2013-02-13 16:14:00,42.7,42.7,29.64,SE,130,0.3,3.5,100,0.01,,,0.12,WeatherDisplay:10.37,2013-02-13 21:14:00,
2013-02-13 16:16:00,42.7,42.7,29.64,SE,130,0.0,0.0,100,0.01,,,0.12,WeatherDisplay:10.37,2013-02-13 21:16:00,
2013-02-13 16:18:00,43.1,43.1,29.63,East,89,1.2,4.6,100,0.01,,,0.12,WeatherDisplay:10.37,2013-02-13 21:18:00,
2013-02-13 16:19:00,42.7,42.7,29.63,East,89,1.2,4.6,100,0.01,,,0.12,WeatherDisplay:10.37,2013-02-13 21:19:00,
2013-02-13 16:21:00,43.0,43.0,29.63,ENE,59,0.0,2.3,100,0.01,,,0.12,WeatherDisplay:10.37,2013-02-13 21:21:00,
2013-02-13 16:24:00,43.1,43.1,29.63,NE,56,1.5,6.9,100,0.01,,,0.12,WeatherDisplay:10.37,2013-02-13 21:24:00,
2013-02-13 16:27:00,42.6,42.6,29.63,ENE,78,3.6,5.8,100,0.01,,,0.12,WeatherDisplay:10.37,2013-02-13 21:27:00,
2013-02-13 16:29:00,42.9,42.9,29.63,ESE,103,0.0,3.5,100,0.01,,,0.12,WeatherDisplay:10.37,2013-02-13 21:29:00,
2013-02-13 16:33:00,42.7,42.7,29.63,East,83,4.0,6.9,100,0.01,,,0.12,WeatherDisplay:10.37,2013-02-13 21:33:00,
2013-02-13 16:34:00,42.4,42.4,29.63,East,89,1.9,5.8,100,0.01,,,0.12,WeatherDisplay:10.37,2013-02-13 21:34:00,
2013-02-13 16:35:00,42.5,42.5,29.63,East,89,0.0,5.8,100,0.01,,,0.12,WeatherDisplay:10.37,2013-02-13 21:35:00,
2013-02-13 16:38:00,42.6,42.6,29.63,East,88,4.5,6.9,100,0.00,,,0.12,WeatherDisplay:10.37,2013-02-13 21:38:00,
2013-02-13 16:39:00,42.5,42.5,29.62,East,93,4.2,5.8,100,0.00,,,0.12,WeatherDisplay:10.37,2013-02-13 21:39:00,
2013-02-13 16:40:00,42.5,42.5,29.62,East,92,4.0,5.8,100,0.00,,,0.12,WeatherDisplay:10.37,2013-02-13 21:40:00,
2013-02-13 16:43:00,42.4,42.4,29.62,East,85,1.1,5.8,100,0.00,,,0.12,WeatherDisplay:10.37,2013-02-13 21:43:00,
2013-02-13 16:44:00,42.3,42.3,29.62,East,85,0.0,0.0,100,0.00,,,0.12,WeatherDisplay:10.37,2013-02-13 21:44:00,
2013-02-13 16:45:00,42.5,42.5,29.63,East,85,0.0,0.0,100,0.00,,,0.12,WeatherDisplay:10.37,2013-02-13 21:45:00,
2013-02-13 16:48:00,42.4,42.4,29.63,East,85,0.0,0.0,100,0.01,RA,,0.13,WeatherDisplay:10.37,2013-02-13 21:48:00,
2013-02-13 16:49:00,42.5,42.5,29.63,East,85,0.0,0.0,100,0.01,RA,,0.13,WeatherDisplay:10.37,2013-02-13 21:49:00,
2013-02-13 16:50:00,42.6,42.6,29.63,East,97,1.9,5.1,100,0.01,RA,,0.13,WeatherDisplay:10.37,2013-02-13 21:50:00,
2013-02-13 16:54:00,42.4,42.4,29.63,ESE,121,0.7,0.0,100,0.01,RA,,0.13,WeatherDisplay:10.37,2013-02-13 21:54:00,
2013-02-13 16:55:00,42.3,42.3,29.63,ESE,123,1.1,6.5,100,0.01,RA,,0.13,WeatherDisplay:10.37,2013-02-13 21:55:00,
2013-02-13 16:59:00,42.2,42.2,29.63,ESE,113,1.8,5.8,100,0.01,,,0.13,WeatherDisplay:10.37,2013-02-13 21:59:00,
2013-02-13 17:00:00,42.4,42.4,29.63,ESE,106,3.2,5.8,100,0.01,,,0.13,WeatherDisplay:10.37,2013-02-13 22:00:00,
2013-02-13 17:04:00,42.2,42.2,29.63,SE,128,0.3,5.7,100,0.01,CLR,,0.13,WeatherDisplay:10.37,2013-02-13 22:04:00,
2013-02-13 17:05:00,42.3,42.3,29.63,East,89,3.7,6.0,100,0.01,CLR,,0.13,WeatherDisplay:10.37,2013-02-13 22:05:00,
2013-02-13 17:09:00,42.3,42.3,29.63,East,85,3.3,4.6,100,0.01,,,0.13,WeatherDisplay:10.37,2013-02-13 22:09:00,
2013-02-13 17:10:00,42.2,42.2,29.63,East,85,0.2,4.6,100,0.01,,,0.13,WeatherDisplay:10.37,2013-02-13 22:10:00,
2013-02-13 17:14:00,42.5,42.5,29.64,East,85,0.0,0.0,100,0.01,,,0.13,WeatherDisplay:10.37,2013-02-13 22:14:00,
2013-02-13 17:15:00,42.3,42.3,29.64,East,85,0.0,0.0,100,0.01,,,0.13,WeatherDisplay:10.37,2013-02-13 22:15:00,
2013-02-13 17:19:00,42.2,42.2,29.64,East,79,1.9,4.6,100,0.01,,,0.13,WeatherDisplay:10.37,2013-02-13 22:19:00,
2013-02-13 17:20:00,42.2,42.2,29.64,ESE,112,0.8,4.6,100,0.01,,,0.13,WeatherDisplay:10.37,2013-02-13 22:20:00,
2013-02-13 17:21:00,42.2,42.2,29.64,ESE,112,0.6,3.5,100,0.01,,,0.13,WeatherDisplay:10.37,2013-02-13 22:21:00,
2013-02-13 17:24:00,41.9,41.9,29.64,ESE,112,0.0,0.0,100,0.01,,,0.13,WeatherDisplay:10.37,2013-02-13 22:24:00,
2013-02-13 17:25:00,42.3,42.3,29.64,East,92,1.7,4.6,100,0.01,,,0.13,WeatherDisplay:10.37,2013-02-13 22:25:00,
2013-02-13 17:26:00,42.3,42.3,29.64,East,95,3.9,4.6,100,0.01,,,0.13,WeatherDisplay:10.37,2013-02-13 22:26:00,
2013-02-13 17:29:00,42.3,42.3,29.64,East,96,0.0,0.0,100,0.01,,,0.13,WeatherDisplay:10.37,2013-02-13 22:29:00,
2013-02-13 17:30:00,42.1,42.1,29.64,East,96,0.0,0.0,100,0.01,,,0.13,WeatherDisplay:10.37,2013-02-13 22:30:00,
2013-02-13 17:31:00,42.2,42.2,29.64,East,96,0.0,0.0,100,0.01,,,0.13,WeatherDisplay:10.37,2013-02-13 22:31:00,
2013-02-13 17:35:00,42.1,42.1,29.64,East,96,0.0,0.0,100,0.01,,,0.13,WeatherDisplay:10.37,2013-02-13 22:35:00,
2013-02-13 17:36:00,42.1,42.1,29.65,East,96,0.0,0.0,100,0.01,,,0.13,WeatherDisplay:10.37,2013-02-13 22:36:00,
2013-02-13 17:40:00,42.2,42.2,29.65,East,96,0.0,0.0,100,0.01,,,0.13,WeatherDisplay:10.37,2013-02-13 22:40:00,
2013-02-13 17:41:00,42.3,42.3,29.65,East,96,0.0,0.0,100,0.01,,,0.13,WeatherDisplay:10.37,2013-02-13 22:41:00,
2013-02-13 17:45:00,42.0,42.0,29.65,North,6,0.0,0.0,100,0.01,,,0.13,WeatherDisplay:10.37,2013-02-13 22:45:00,
2013-02-13 17:46:00,42.1,42.1,29.65,North,6,0.0,0.0,100,0.01,,,0.13,WeatherDisplay:10.37,2013-02-13 22:46:00,
2013-02-13 17:50:00,41.8,41.8,29.65,North,6,0.0,0.0,100,0.00,,,0.13,WeatherDisplay:10.37,2013-02-13 22:50:00,
2013-02-13 17:51:00,42.0,42.0,29.65,North,6,0.0,0.0,100,0.00,,,0.13,WeatherDisplay:10.37,2013-02-13 22:51:00,
2013-02-13 17:55:00,42.1,42.1,29.65,ENE,78,0.9,4.3,100,0.00,,,0.13,WeatherDisplay:10.37,2013-02-13 22:55:00,
2013-02-13 17:56:00,42.1,42.1,29.65,ENE,78,1.0,0.0,100,0.00,,,0.13,WeatherDisplay:10.37,2013-02-13 22:56:00,
2013-02-13 18:00:00,41.8,41.8,29.65,ENE,78,0.0,0.0,100,0.01,RA,,0.14,WeatherDisplay:10.37,2013-02-13 23:00:00,
2013-02-13 18:01:00,41.9,41.9,29.65,ENE,78,0.0,0.0,100,0.01,RA,,0.14,WeatherDisplay:10.37,2013-02-13 23:01:00,
2013-02-13 18:05:00,42.0,42.0,29.65,ENE,78,0.0,0.0,100,0.01,RA,,0.14,WeatherDisplay:10.37,2013-02-13 23:05:00,
2013-02-13 18:06:00,41.7,41.7,29.65,ENE,78,0.0,0.0,100,0.01,RA,,0.14,WeatherDisplay:10.37,2013-02-13 23:06:00,
2013-02-13 18:07:00,42.0,42.0,29.65,ENE,78,0.0,0.0,100,0.01,RA,,0.14,WeatherDisplay:10.37,2013-02-13 23:07:00,
2013-02-13 18:10:00,42.0,42.0,29.65,ENE,78,0.0,0.0,100,0.01,CLR,,0.14,WeatherDisplay:10.37,2013-02-13 23:10:00,
2013-02-13 18:11:00,41.8,41.8,29.65,ENE,78,0.0,0.0,100,0.01,CLR,,0.14,WeatherDisplay:10.37,2013-02-13 23:11:00,
2013-02-13 18:12:00,42.2,42.2,29.65,ENE,78,0.0,0.0,100,0.01,CLR,,0.14,WeatherDisplay:10.37,2013-02-13 23:12:00,
2013-02-13 18:16:00,41.9,41.9,29.67,WNW,299,6.1,6.1,100,0.02,RA,,0.15,WeatherDisplay:10.37,2013-02-13 23:16:00,
2013-02-13 18:17:00,41.9,41.9,29.67,NW,309,4.3,6.9,100,0.03,RA,,0.16,WeatherDisplay:10.37,2013-02-13 23:17:00,
2013-02-13 18:21:00,42.1,42.1,29.67,WNW,284,0.0,0.0,100,0.04,RA,,0.17,WeatherDisplay:10.37,2013-02-13 23:21:00,
2013-02-13 18:22:00,42.2,42.2,29.67,WNW,284,0.0,0.0,100,0.04,RA,,0.17,WeatherDisplay:10.37,2013-02-13 23:22:00,
2013-02-13 18:26:00,42.1,42.1,29.67,WNW,284,0.0,0.0,100,0.04,RA,,0.17,WeatherDisplay:10.37,2013-02-13 23:26:00,
2013-02-13 18:27:00,42.0,42.0,29.67,WNW,284,0.0,0.0,100,0.04,RA,,0.17,WeatherDisplay:10.37,2013-02-13 23:27:00,
2013-02-13 18:31:00,42.1,42.1,29.67,WNW,284,0.0,0.0,100,0.04,,,0.17,WeatherDisplay:10.37,2013-02-13 23:31:00,
2013-02-13 18:32:00,42.3,42.3,29.67,WNW,284,0.0,0.0,100,0.04,CLR,,0.17,WeatherDisplay:10.37,2013-02-13 23:32:00,
2013-02-13 18:36:00,42.2,42.2,29.68,WNW,284,0.0,0.0,100,0.04,CLR,,0.17,WeatherDisplay:10.37,2013-02-13 23:36:00,
2013-02-13 18:37:00,42.3,42.3,29.68,WNW,284,0.0,0.0,100,0.04,CLR,,0.17,WeatherDisplay:10.37,2013-02-13 23:37:00,
2013-02-13 18:41:00,41.9,41.9,29.69,NW,308,4.7,6.9,100,0.04,,,0.17,WeatherDisplay:10.37,2013-02-13 23:41:00,
2013-02-13 18:42:00,42.2,42.2,29.69,NW,308,1.5,5.8,100,0.04,CLR,,0.17,WeatherDisplay:10.37,2013-02-13 23:42:00,
2013-02-13 18:46:00,42.2,42.2,29.69,WNW,301,0.0,0.0,100,0.04,CLR,,0.17,WeatherDisplay:10.37,2013-02-13 23:46:00,
2013-02-13 18:47:00,42.2,42.2,29.69,WNW,301,0.0,0.0,100,0.04,CLR,,0.17,WeatherDisplay:10.37,2013-02-13 23:47:00,
2013-02-13 18:48:00,42.2,42.2,29.69,WNW,301,0.0,0.0,100,0.04,CLR,,0.17,WeatherDisplay:10.37,2013-02-13 23:48:00,
2013-02-13 18:51:00,41.9,41.9,29.69,WNW,301,0.0,0.0,100,0.04,CLR,,0.17,WeatherDisplay:10.37,2013-02-13 23:51:00,
2013-02-13 18:52:00,42.1,42.1,29.69,WNW,301,0.0,0.0,100,0.04,CLR,,0.17,WeatherDisplay:10.37,2013-02-13 23:52:00,
2013-02-13 18:53:00,42.0,42.0,29.69,WNW,289,0.5,4.9,100,0.04,CLR,,0.17,WeatherDisplay:10.37,2013-02-13 23:53:00,
2013-02-13 18:56:00,42.0,42.0,29.70,NNW,339,1.5,5.8,100,0.04,CLR,,0.17,WeatherDisplay:10.37,2013-02-13 23:56:00,
2013-02-13 18:57:00,41.9,41.9,29.70,NNW,328,3.2,5.8,100,0.04,,,0.17,WeatherDisplay:10.37,2013-02-13 23:57:00,
2013-02-13 18:58:00,41.9,41.9,29.70,NW,313,4.5,6.7,100,0.04,,,0.17,WeatherDisplay:10.37,2013-02-13 23:58:00,
2013-02-13 19:02:00,41.7,41.7,29.71,WNW,296,5.8,8.1,100,0.03,,,0.17,WeatherDisplay:10.37,2013-02-14 00:02:00,
2013-02-13 19:03:00,41.9,41.9,29.71,WNW,287,6.1,9.2,100,0.03,CLR,,0.17,WeatherDisplay:10.37,2013-02-14 00:03:00,
2013-02-13 19:07:00,41.4,41.4,29.71,WNW,299,6.3,16.1,100,0.03,,,0.17,WeatherDisplay:10.37,2013-02-14 00:07:00,
2013-02-13 19:08:00,41.6,41.1,29.71,West,278,8.8,13.8,98,0.03,CLR,,0.17,WeatherDisplay:10.37,2013-02-14 00:08:00,
2013-02-13 19:09:00,41.8,39.6,29.71,NW,312,9.2,13.8,92,0.03,CLR,,0.17,WeatherDisplay:10.37,2013-02-14 00:09:00,
2013-02-13 19:12:00,42.0,34.3,29.71,WNW,287,12.0,17.3,74,0.03,CLR,,0.17,WeatherDisplay:10.37,2013-02-14 00:12:00,
2013-02-13 19:13:00,41.7,33.0,29.71,WNW,292,9.3,13.8,71,0.03,CLR,,0.17,WeatherDisplay:10.37,2013-02-14 00:13:00,
2013-02-13 19:14:00,41.9,33.5,29.72,WNW,287,8.9,12.7,72,0.03,CLR,,0.17,WeatherDisplay:10.37,2013-02-14 00:14:00,
2013-02-13 19:17:00,41.5,32.8,29.72,WNW,295,9.1,11.7,71,0.01,CLR,,0.17,WeatherDisplay:10.37,2013-02-14 00:17:00,
2013-02-13 19:18:00,41.7,32.6,29.72,NW,322,5.6,11.5,70,0.01,CLR,,0.17,WeatherDisplay:10.37,2013-02-14 00:18:00,
2013-02-13 19:19:00,41.7,32.6,29.72,NW,313,7.4,11.5,70,0.00,CLR,,0.17,WeatherDisplay:10.37,2013-02-14 00:19:00,
2013-02-13 19:22:00,41.3,31.5,29.72,NNW,332,8.3,12.7,68,0.00,CLR,,0.17,WeatherDisplay:10.37,2013-02-14 00:22:00,
2013-02-13 19:23:00,41.5,31.7,29.73,WSW,251,8.4,13.8,68,0.00,CLR,,0.17,WeatherDisplay:10.37,2013-02-14 00:23:00,
2013-02-13 19:24:00,41.1,31.0,29.72,WNW,302,7.0,12.7,67,0.00,CLR,,0.17,WeatherDisplay:10.37,2013-02-14 00:24:00,
2013-02-13 19:27:00,41.5,32.1,29.73,NW,306,4.9,11.5,69,0.00,CLR,,0.17,WeatherDisplay:10.37,2013-02-14 00:27:00,
2013-02-13 19:28:00,40.9,31.1,29.73,WNW,291,6.5,9.2,68,0.00,CLR,,0.17,WeatherDisplay:10.37,2013-02-14 00:28:00,
2013-02-13 19:29:00,41.0,30.5,29.73,West,270,6.4,10.4,66,0.00,CLR,,0.17,WeatherDisplay:10.37,2013-02-14 00:29:00,
2013-02-13 19:32:00,41.0,30.1,29.73,West,275,8.7,11.5,65,0.00,CLR,,0.17,WeatherDisplay:10.37,2013-02-14 00:32:00,
2013-02-13 19:33:00,41.2,30.3,29.73,NW,312,7.4,11.5,65,0.00,CLR,,0.17,WeatherDisplay:10.37,2013-02-14 00:33:00,
2013-02-13 19:34:00,41.4,30.9,29.73,NW,309,7.3,11.5,66,0.00,CLR,,0.17,WeatherDisplay:10.37,2013-02-14 00:34:00,
2013-02-13 19:35:00,41.1,30.6,29.73,WNW,289,8.2,9.6,66,0.00,CLR,,0.17,WeatherDisplay:10.37,2013-02-14 00:35:00,
2013-02-13 19:38:00,41.1,27.0,29.73,WSW,251,9.6,16.5,57,0.00,CLR,,0.17,WeatherDisplay:10.37,2013-02-14 00:38:00,
2013-02-13 19:39:00,41.2,27.1,29.73,West,271,13.6,16.1,57,0.00,CLR,,0.17,WeatherDisplay:10.37,2013-02-14 00:39:00,
2013-02-13 19:40:00,41.4,24.1,29.73,NW,315,9.8,18.4,50,0.00,CLR,,0.17,WeatherDisplay:10.37,2013-02-14 00:40:00,
2013-02-13 19:43:00,41.3,23.6,29.73,WNW,292,12.1,19.6,49,0.00,CLR,,0.17,WeatherDisplay:10.37,2013-02-14 00:43:00,
2013-02-13 19:44:00,41.4,23.6,29.73,NW,305,11.7,19.6,49,0.00,CLR,,0.17,WeatherDisplay:10.37,2013-02-14 00:44:00,
2013-02-13 19:45:00,41.3,24.5,29.73,WNW,287,9.0,18.4,51,0.00,CLR,,0.17,WeatherDisplay:10.37,2013-02-14 00:45:00,
2013-02-13 19:48:00,41.0,24.2,29.73,WNW,302,5.4,11.5,51,0.00,CLR,,0.17,WeatherDisplay:10.37,2013-02-14 00:48:00,
2013-02-13 19:49:00,41.0,23.8,29.73,NW,304,4.7,11.5,50,0.00,CLR,,0.17,WeatherDisplay:10.37,2013-02-14 00:49:00,
2013-02-13 19:50:00,40.9,24.1,29.73,WNW,284,8.6,15.0,51,0.00,CLR,,0.17,WeatherDisplay:10.37,2013-02-14 00:50:00,
2013-02-13 19:53:00,40.8,24.1,29.73,WNW,294,8.4,12.1,51,0.00,CLR,,0.17,WeatherDisplay:10.37,2013-02-14 00:53:00,
2013-02-13 19:54:00,40.7,24.0,29.73,NW,306,8.6,11.6,51,0.00,CLR,,0.17,WeatherDisplay:10.37,2013-02-14 00:54:00,
2013-02-13 19:55:00,40.7,23.5,29.74,WNW,295,8.8,13.8,50,0.00,CLR,,0.17,WeatherDisplay:10.37,2013-02-14 00:55:00,
2013-02-13 19:59:00,40.8,22.6,29.74,NNW,347,10.8,17.3,48,0.00,CLR,,0.17,WeatherDisplay:10.37,2013-02-14 00:59:00,
2013-02-13 20:01:00,40.7,21.5,29.74,WSW,258,13.9,18.4,46,0.00,CLR,,0.17,WeatherDisplay:10.37,2013-02-14 01:01:00,
2013-02-13 20:04:00,40.9,21.2,29.74,WNW,289,10.3,13.8,45,0.00,CLR,,0.17,WeatherDisplay:10.37,2013-02-14 01:04:00,
2013-02-13 20:06:00,40.8,21.6,29.75,NW,308,7.2,15.0,46,0.00,CLR,,0.17,WeatherDisplay:10.37,2013-02-14 01:06:00,
2013-02-13 20:09:00,41.0,22.3,29.75,WNW,296,8.7,13.8,47,0.00,CLR,,0.17,WeatherDisplay:10.37,2013-02-14 01:09:00,
2013-02-13 20:11:00,40.9,21.7,29.75,NW,322,7.7,12.7,46,0.00,CLR,,0.17,WeatherDisplay:10.37,2013-02-14 01:11:00,
2013-02-13 20:14:00,41.1,22.4,29.75,NW,305,5.2,11.5,47,0.00,CLR,,0.17,WeatherDisplay:10.37,2013-02-14 01:14:00,
2013-02-13 20:16:00,40.7,22.5,29.75,WSW,251,6.0,15.0,48,0.00,CLR,,0.17,WeatherDisplay:10.37,2013-02-14 01:16:00,
2013-02-13 20:19:00,40.4,20.7,29.75,NW,322,10.8,18.4,45,0.00,CLR,,0.17,WeatherDisplay:10.37,2013-02-14 01:19:00,
2013-02-13 20:21:00,40.7,21.5,29.75,West,277,9.0,13.8,46,0.00,CLR,,0.17,WeatherDisplay:10.37,2013-02-14 01:21:00,
2013-02-13 20:24:00,40.4,21.7,29.75,NW,312,9.8,15.6,47,0.00,CLR,,0.17,WeatherDisplay:10.37,2013-02-14 01:24:00,
2013-02-13 20:26:00,40.7,22.5,29.75,NNW,328,7.7,16.1,48,0.00,CLR,,0.17,WeatherDisplay:10.37,2013-02-14 01:26:00,
2013-02-13 20:29:00,40.9,22.2,29.76,WNW,295,6.2,11.5,47,0.00,CLR,,0.17,WeatherDisplay:10.37,2013-02-14 01:29:00,
2013-02-13 20:31:00,40.7,21.0,29.76,WNW,294,7.8,16.1,45,0.00,CLR,,0.17,WeatherDisplay:10.37,2013-02-14 01:31:00,
2013-02-13 20:34:00,40.7,21.5,29.76,WNW,289,7.8,16.1,46,0.00,CLR,,0.17,WeatherDisplay:10.37,2013-02-14 01:34:00,
2013-02-13 20:36:00,40.5,20.8,29.76,NW,305,10.9,18.4,45,0.00,CLR,,0.17,WeatherDisplay:10.37,2013-02-14 01:36:00,
2013-02-13 20:39:00,40.5,20.8,29.76,WNW,291,9.5,19.8,45,0.00,CLR,,0.17,WeatherDisplay:10.37,2013-02-14 01:39:00,
2013-02-13 20:40:00,40.7,20.5,29.76,WNW,299,11.7,13.1,44,0.00,CLR,,0.17,WeatherDisplay:10.37,2013-02-14 01:40:00,
2013-02-13 20:41:00,40.4,21.2,29.76,NNW,330,7.5,12.7,46,0.00,CLR,,0.17,WeatherDisplay:10.37,2013-02-14 01:41:00,
2013-02-13 20:44:00,40.7,21.0,29.76,WNW,294,7.6,12.7,45,0.00,CLR,,0.17,WeatherDisplay:10.37,2013-02-14 01:44:00,
2013-02-13 20:45:00,40.3,20.6,29.76,West,268,7.4,12.7,45,0.00,CLR,,0.17,WeatherDisplay:10.37,2013-02-14 01:45:00,
2013-02-13 20:46:00,40.3,20.6,29.76,WNW,291,9.6,16.1,45,0.00,CLR,,0.17,WeatherDisplay:10.37,2013-02-14 01:46:00,
2013-02-13 20:49:00,40.6,20.9,29.76,NW,309,8.9,16.1,45,0.00,CLR,,0.17,WeatherDisplay:10.37,2013-02-14 01:49:00,
2013-02-13 20:50:00,40.4,20.7,29.76,NW,319,10.7,20.7,45,0.00,CLR,,0.17,WeatherDisplay:10.37,2013-02-14 01:50:00,
2013-02-13 20:52:00,40.5,21.3,29.76,WNW,285,7.5,12.7,46,0.00,CLR,,0.17,WeatherDisplay:10.37,2013-02-14 01:52:00,
2013-02-13 20:55:00,40.2,21.0,29.77,WNW,302,10.2,13.6,46,0.00,CLR,,0.17,WeatherDisplay:10.37,2013-02-14 01:55:00,
2013-02-13 20:57:00,40.5,21.8,29.77,WNW,299,6.9,11.5,47,0.00,CLR,,0.17,WeatherDisplay:10.37,2013-02-14 01:57:00,
2013-02-13 21:00:00,40.4,21.2,29.77,WNW,294,10.0,18.4,46,0.00,CLR,,0.17,WeatherDisplay:10.37,2013-02-14 02:00:00,
2013-02-13 21:02:00,40.3,20.1,29.77,NW,309,11.4,17.3,44,0.00,CLR,,0.17,WeatherDisplay:10.37,2013-02-14 02:02:00,
2013-02-13 21:05:00,40.3,21.1,29.76,NW,312,6.6,11.5,46,0.00,CLR,,0.17,WeatherDisplay:10.37,2013-02-14 02:05:00,
2013-02-13 21:07:00,40.1,21.0,29.76,WNW,292,7.8,12.7,46,0.00,CLR,,0.17,WeatherDisplay:10.37,2013-02-14 02:07:00,
2013-02-13 21:10:00,40.5,20.8,29.77,NNW,343,9.2,15.0,45,0.00,CLR,,0.17,WeatherDisplay:10.37,2013-02-14 02:10:00,
2013-02-13 21:12:00,40.3,21.1,29.77,NW,304,8.3,12.7,46,0.00,CLR,,0.17,WeatherDisplay:10.37,2013-02-14 02:12:00,
2013-02-13 21:15:00,40.0,20.9,29.77,NW,316,8.1,12.9,46,0.00,CLR,,0.17,WeatherDisplay:10.37,2013-02-14 02:15:00,
2013-02-13 21:16:00,40.0,20.9,29.77,WNW,287,7.9,15.0,46,0.00,CLR,,0.17,WeatherDisplay:10.37,2013-02-14 02:16:00,
2013-02-13 21:17:00,40.0,21.4,29.77,West,280,7.8,15.0,47,0.00,CLR,,0.17,WeatherDisplay:10.37,2013-02-14 02:17:00,
2013-02-13 21:20:00,40.0,20.9,29.77,WNW,291,9.3,13.8,46,0.00,CLR,,0.17,WeatherDisplay:10.37,2013-02-14 02:20:00,
2013-02-13 21:21:00,39.8,20.7,29.77,NW,325,7.2,14.6,46,0.00,CLR,,0.17,WeatherDisplay:10.37,2013-02-14 02:21:00,
2013-02-13 21:22:00,39.9,20.8,29.77,West,263,9.8,15.0,46,0.00,CLR,,0.17,WeatherDisplay:10.37,2013-02-14 02:22:00,
2013-02-13 21:25:00,39.9,21.3,29.77,WNW,298,7.5,10.4,47,0.00,CLR,,0.17,WeatherDisplay:10.37,2013-02-14 02:25:00,
2013-02-13 21:26:00,39.9,20.8,29.77,NW,315,9.3,15.0,46,0.00,CLR,,0.17,WeatherDisplay:10.37,2013-02-14 02:26:00,
2013-02-13 21:27:00,39.8,20.7,29.77,North,353,8.5,12.7,46,0.00,CLR,,0.17,WeatherDisplay:10.37,2013-02-14 02:27:00,
2013-02-13 21:30:00,39.9,21.3,29.78,NNW,333,9.6,15.0,47,0.00,CLR,,0.17,WeatherDisplay:10.37,2013-02-14 02:30:00,
2013-02-13 21:31:00,40.0,20.9,29.78,West,268,9.2,15.0,46,0.00,CLR,,0.17,WeatherDisplay:10.37,2013-02-14 02:31:00,
2013-02-13 21:32:00,39.8,20.7,29.78,WNW,298,11.3,11.5,46,0.00,CLR,,0.17,WeatherDisplay:10.37,2013-02-14 02:32:00,
2013-02-13 21:35:00,40.2,22.1,29.78,West,274,4.6,6.9,48,0.00,CLR,,0.17,WeatherDisplay:10.37,2013-02-14 02:35:00,
2013-02-13 21:36:00,40.0,21.4,29.78,NNW,346,5.6,12.7,47,0.00,CLR,,0.17,WeatherDisplay:10.37,2013-02-14 02:36:00,
2013-02-13 21:37:00,39.6,21.5,29.78,NW,320,7.5,12.7,48,0.00,CLR,,0.17,WeatherDisplay:10.37,2013-02-14 02:37:00,
2013-02-13 21:40:00,39.5,21.4,29.78,WNW,302,6.7,11.5,48,0.00,CLR,,0.17,WeatherDisplay:10.37,2013-02-14 02:40:00,
2013-02-13 21:41:00,39.7,21.6,29.77,NW,304,7.7,12.7,48,0.00,CLR,,0.17,WeatherDisplay:10.37,2013-02-14 02:41:00,
2013-02-13 21:42:00,39.7,21.6,29.77,WNW,291,6.4,12.7,48,0.00,CLR,,0.17,WeatherDisplay:10.37,2013-02-14 02:42:00,
2013-02-13 21:45:00,39.8,21.7,29.77,West,275,7.7,13.8,48,0.00,CLR,,0.17,WeatherDisplay:10.37,2013-02-14 02:45:00,
2013-02-13 21:46:00,40.0,21.9,29.77,NW,313,6.7,11.5,48,0.00,CLR,,0.17,WeatherDisplay:10.37,2013-02-14 02:46:00,
2013-02-13 21:48:00,39.5,20.9,29.77,NW,305,8.4,13.8,47,0.00,CLR,,0.17,WeatherDisplay:10.37,2013-02-14 02:48:00,
2013-02-13 21:50:00,39.6,21.0,29.78,NW,320,8.8,15.7,47,0.00,CLR,,0.17,WeatherDisplay:10.37,2013-02-14 02:50:00,
2013-02-13 21:51:00,39.6,20.5,29.78,NW,320,11.6,16.1,46,0.00,CLR,,0.17,WeatherDisplay:10.37,2013-02-14 02:51:00,
2013-02-13 21:53:00,39.8,21.2,29.78,WNW,287,7.2,10.4,47,0.00,CLR,,0.17,WeatherDisplay:10.37,2013-02-14 02:53:00,
2013-02-13 21:55:00,39.9,21.8,29.78,WNW,287,4.5,8.1,48,0.00,CLR,,0.17,WeatherDisplay:10.37,2013-02-14 02:55:00,
2013-02-13 21:56:00,39.6,21.5,29.78,NW,308,7.5,10.4,48,0.00,CLR,,0.17,WeatherDisplay:10.37,2013-02-14 02:56:00,
2013-02-13 21:58:00,39.9,21.8,29.78,WNW,287,4.5,8.1,48,0.00,CLR,,0.17,WeatherDisplay:10.37,2013-02-14 02:58:00,
2013-02-13 22:01:00,39.9,21.8,29.78,NW,305,4.4,8.1,48,0.00,CLR,,0.17,WeatherDisplay:10.37,2013-02-14 03:01:00,
2013-02-13 22:02:00,39.4,21.3,29.78,NW,325,5.5,11.5,48,0.00,CLR,,0.17,WeatherDisplay:10.37,2013-02-14 03:02:00,
2013-02-13 22:03:00,39.7,21.6,29.78,WNW,289,5.5,9.2,48,0.00,CLR,,0.17,WeatherDisplay:10.37,2013-02-14 03:03:00,
2013-02-13 22:06:00,39.9,21.8,29.78,West,261,1.6,6.9,48,0.00,CLR,,0.17,WeatherDisplay:10.37,2013-02-14 03:06:00,
2013-02-13 22:07:00,39.6,22.0,29.78,NW,311,0.6,4.6,49,0.00,CLR,,0.17,WeatherDisplay:10.37,2013-02-14 03:07:00,
2013-02-13 22:08:00,39.4,21.8,29.79,NW,311,0.6,3.5,49,0.00,CLR,,0.17,WeatherDisplay:10.37,2013-02-14 03:08:00,
2013-02-13 22:11:00,39.7,22.1,29.79,NW,323,0.0,0.0,49,0.00,CLR,,0.17,WeatherDisplay:10.37,2013-02-14 03:11:00,
2013-02-13 22:12:00,39.4,21.8,29.79,NW,323,0.0,0.0,49,0.00,CLR,,0.17,WeatherDisplay:10.37,2013-02-14 03:12:00,
2013-02-13 22:13:00,39.8,21.7,29.79,NW,313,3.2,6.9,48,0.00,CLR,,0.17,WeatherDisplay:10.37,2013-02-14 03:13:00,
2013-02-13 22:16:00,39.6,21.5,29.79,West,260,0.0,0.0,48,0.00,CLR,,0.17,WeatherDisplay:10.37,2013-02-14 03:16:00,
2013-02-13 22:17:00,39.7,21.6,29.79,West,260,0.0,0.0,48,0.00,CLR,,0.17,WeatherDisplay:10.37,2013-02-14 03:17:00,
2013-02-13 22:18:00,40.1,22.0,29.79,West,260,0.0,0.0,48,0.00,CLR,,0.17,WeatherDisplay:10.37,2013-02-14 03:18:00,
2013-02-13 22:21:00,39.8,22.2,29.80,West,260,0.0,0.0,49,0.00,CLR,,0.17,WeatherDisplay:10.37,2013-02-14 03:21:00,
2013-02-13 22:22:00,39.5,21.9,29.80,West,260,0.0,0.0,49,0.00,CLR,,0.17,WeatherDisplay:10.37,2013-02-14 03:22:00,
2013-02-13 22:23:00,39.8,22.2,29.80,West,260,0.0,0.0,49,0.00,CLR,,0.17,WeatherDisplay:10.37,2013-02-14 03:23:00,
2013-02-13 22:26:00,39.9,22.7,29.80,West,260,0.0,0.0,50,0.00,CLR,,0.17,WeatherDisplay:10.37,2013-02-14 03:26:00,
2013-02-13 22:27:00,39.9,22.3,29.80,West,260,0.0,0.0,49,0.00,CLR,,0.17,WeatherDisplay:10.37,2013-02-14 03:27:00,
2013-02-13 22:28:00,39.8,22.2,29.80,West,260,0.0,0.0,49,0.00,CLR,,0.17,WeatherDisplay:10.37,2013-02-14 03:28:00,
2013-02-13 22:32:00,39.6,22.0,29.80,West,260,0.0,0.0,49,0.00,CLR,,0.17,WeatherDisplay:10.37,2013-02-14 03:32:00,
2013-02-13 22:33:00,39.6,22.0,29.80,West,260,0.0,0.0,49,0.00,CLR,,0.17,WeatherDisplay:10.37,2013-02-14 03:33:00,
2013-02-13 22:34:00,39.5,21.9,29.80,West,260,0.0,0.0,49,0.00,CLR,,0.17,WeatherDisplay:10.37,2013-02-14 03:34:00,
2013-02-13 22:37:00,39.7,22.6,29.80,West,260,0.0,0.0,50,0.00,CLR,,0.17,WeatherDisplay:10.37,2013-02-14 03:37:00,
2013-02-13 22:38:00,39.6,22.5,29.81,West,260,0.0,0.0,50,0.00,CLR,,0.17,WeatherDisplay:10.37,2013-02-14 03:38:00,
2013-02-13 22:39:00,39.4,22.3,29.81,West,260,0.0,0.0,50,0.00,CLR,,0.17,WeatherDisplay:10.37,2013-02-14 03:39:00,
2013-02-13 22:42:00,39.5,22.4,29.81,West,260,0.0,0.0,50,0.00,CLR,,0.17,WeatherDisplay:10.37,2013-02-14 03:42:00,
2013-02-13 22:43:00,39.3,23.6,29.81,West,260,0.0,0.0,53,0.00,CLR,,0.17,WeatherDisplay:10.37,2013-02-14 03:43:00,
2013-02-13 22:44:00,39.3,23.1,29.81,West,260,0.0,0.0,52,0.00,CLR,,0.17,WeatherDisplay:10.37,2013-02-14 03:44:00,
2013-02-13 22:47:00,38.8,23.1,29.81,West,260,0.0,0.0,53,0.00,CLR,,0.17,WeatherDisplay:10.37,2013-02-14 03:47:00,
2013-02-13 22:48:00,38.8,21.7,29.81,NW,316,1.1,4.6,50,0.00,CLR,,0.17,WeatherDisplay:10.37,2013-02-14 03:48:00,
2013-02-13 22:50:00,39.3,21.7,29.81,NW,313,0.3,3.5,49,0.00,CLR,,0.17,WeatherDisplay:10.37,2013-02-14 03:50:00,
2013-02-13 22:52:00,39.2,22.1,29.81,NW,313,0.0,0.0,50,0.00,CLR,,0.17,WeatherDisplay:10.37,2013-02-14 03:52:00,
2013-02-13 22:54:00,39.2,22.6,29.81,NW,325,0.0,2.1,51,0.00,CLR,,0.17,WeatherDisplay:10.37,2013-02-14 03:54:00,
2013-02-13 22:55:00,38.9,22.3,29.81,WNW,295,0.7,2.3,51,0.00,CLR,,0.17,WeatherDisplay:10.37,2013-02-14 03:55:00,
2013-02-13 22:57:00,39.4,23.2,29.81,WNW,285,0.0,0.0,52,0.00,CLR,,0.17,WeatherDisplay:10.37,2013-02-14 03:57:00,
2013-02-13 22:58:00,39.4,23.2,29.81,WNW,285,0.0,0.0,52,0.00,CLR,,0.17,WeatherDisplay:10.37,2013-02-14 03:58:00,
2013-02-13 22:59:00,39.1,22.9,29.81,NNW,330,1.4,3.5,52,0.00,CLR,,0.17,WeatherDisplay:10.37,2013-02-14 03:59:00,
2013-02-13 23:00:00,39.2,23.5,29.81,NNW,330,0.0,3.5,53,0.00,CLR,,0.17,WeatherDisplay:10.37,2013-02-14 04:00:00,
2013-02-13 23:02:00,39.2,23.0,29.81,NNW,330,0.0,0.0,52,0.00,CLR,,0.17,WeatherDisplay:10.37,2013-02-14 04:02:00,
2013-02-13 23:03:00,38.9,22.8,29.81,NW,315,2.2,4.6,52,0.00,CLR,,0.17,WeatherDisplay:10.37,2013-02-14 04:03:00,
2013-02-13 23:04:00,39.1,22.9,29.81,NW,313,3.9,5.8,52,0.00,CLR,,0.17,WeatherDisplay:10.37,2013-02-14 04:04:00,
2013-02-13 23:05:00,39.1,22.9,29.81,NW,318,2.3,6.9,52,0.00,CLR,,0.17,WeatherDisplay:10.37,2013-02-14 04:05:00,
2013-02-13 23:07:00,38.9,22.8,29.81,WNW,299,0.0,4.6,52,0.00,CLR,,0.17,WeatherDisplay:10.37,2013-02-14 04:07:00,
2013-02-13 23:08:00,38.9,22.8,29.81,WNW,299,0.0,0.0,52,0.00,CLR,,0.17,WeatherDisplay:10.37,2013-02-14 04:08:00,
2013-02-13 23:09:00,39.2,23.9,29.81,WNW,299,0.0,0.0,54,0.00,CLR,,0.17,WeatherDisplay:10.37,2013-02-14 04:09:00,
2013-02-13 23:10:00,39.0,22.4,29.81,WNW,299,0.0,0.0,51,0.00,CLR,,0.17,WeatherDisplay:10.37,2013-02-14 04:10:00,
2013-02-13 23:12:00,39.3,24.0,29.81,WNW,299,0.0,0.0,54,0.00,CLR,,0.17,WeatherDisplay:10.37,2013-02-14 04:12:00,
2013-02-13 23:13:00,39.2,23.9,29.81,WNW,299,0.0,0.0,54,0.00,CLR,,0.17,WeatherDisplay:10.37,2013-02-14 04:13:00,
2013-02-13 23:14:00,39.1,23.8,29.81,WNW,299,0.0,0.0,54,0.00,CLR,,0.17,WeatherDisplay:10.37,2013-02-14 04:14:00,
2013-02-13 23:16:00,39.3,23.6,29.82,NW,305,0.0,0.0,53,0.00,CLR,,0.17,WeatherDisplay:10.37,2013-02-14 04:16:00,
2013-02-13 23:18:00,39.4,24.1,29.82,NW,325,1.4,5.0,54,0.00,CLR,,0.17,WeatherDisplay:10.37,2013-02-14 04:18:00,
2013-02-13 23:19:00,39.4,24.6,29.82,NW,325,0.0,5.8,55,0.00,CLR,,0.17,WeatherDisplay:10.37,2013-02-14 04:19:00,
2013-02-13 23:21:00,39.2,23.0,29.82,NNW,339,1.3,5.0,52,0.00,CLR,,0.17,WeatherDisplay:10.37,2013-02-14 04:21:00,
2013-02-13 23:23:00,38.8,22.2,29.82,NNW,340,3.1,8.1,51,0.00,CLR,,0.17,WeatherDisplay:10.37,2013-02-14 04:23:00,
2013-02-13 23:24:00,39.0,23.3,29.82,NW,312,1.5,4.6,53,0.00,CLR,,0.17,WeatherDisplay:10.37,2013-02-14 04:24:00,
2013-02-13 23:26:00,39.2,23.5,29.82,NW,312,0.0,0.0,53,0.00,CLR,,0.17,WeatherDisplay:10.37,2013-02-14 04:26:00,
2013-02-13 23:28:00,39.2,23.0,29.82,NW,319,3.1,5.8,52,0.00,CLR,,0.17,WeatherDisplay:10.37,2013-02-14 04:28:00,
2013-02-13 23:29:00,39.1,22.9,29.82,NNW,340,1.3,5.8,52,0.00,CLR,,0.17,WeatherDisplay:10.37,2013-02-14 04:29:00,
2013-02-13 23:31:00,39.0,22.4,29.82,NW,304,5.3,8.1,51,0.00,CLR,,0.17,WeatherDisplay:10.37,2013-02-14 04:31:00,
2013-02-13 23:33:00,39.1,22.9,29.82,NW,316,4.9,9.2,52,0.00,CLR,,0.17,WeatherDisplay:10.37,2013-02-14 04:33:00,
2013-02-13 23:34:00,39.2,23.0,29.82,NNW,344,4.6,6.9,52,0.00,CLR,,0.17,WeatherDisplay:10.37,2013-02-14 04:34:00,
2013-02-13 23:36:00,39.1,24.7,29.82,NNW,335,2.6,6.9,56,0.00,CLR,,0.17,WeatherDisplay:10.37,2013-02-14 04:36:00,
2013-02-13 23:38:00,39.1,24.3,29.82,NW,313,5.0,9.2,55,0.00,CLR,,0.17,WeatherDisplay:10.37,2013-02-14 04:38:00,
2013-02-13 23:39:00,39.3,24.5,29.82,NW,323,4.5,8.1,55,0.00,CLR,,0.17,WeatherDisplay:10.37,2013-02-14 04:39:00,
2013-02-13 23:41:00,38.8,23.6,29.82,NNW,335,7.6,11.5,54,0.00,CLR,,0.17,WeatherDisplay:10.37,2013-02-14 04:41:00,
2013-02-13 23:44:00,39.1,22.5,29.82,NW,320,8.0,11.5,51,0.00,CLR,,0.17,WeatherDisplay:10.37,2013-02-14 04:44:00,
2013-02-13 23:46:00,39.7,23.0,29.82,North,357,7.0,12.7,51,0.00,CLR,,0.17,WeatherDisplay:10.37,2013-02-14 04:46:00,
2013-02-13 23:49:00,39.4,22.3,29.82,NNW,329,7.8,10.4,50,0.00,CLR,,0.17,WeatherDisplay:10.37,2013-02-14 04:49:00,
2013-02-13 23:51:00,39.4,22.3,29.82,NNW,333,8.3,10.4,50,0.00,CLR,,0.17,WeatherDisplay:10.37,2013-02-14 04:51:00,
2013-02-13 23:54:00,39.7,22.6,29.82,NW,323,5.4,10.4,50,0.00,CLR,,0.17,WeatherDisplay:10.37,2013-02-14 04:54:00,
2013-02-13 23:55:00,39.3,22.7,29.82,NNW,335,5.1,9.7,51,0.00,CLR,,0.17,WeatherDisplay:10.37,2013-02-14 04:55:00,
2013-02-13 23:56:00,39.8,23.1,29.83,NNW,330,5.2,9.2,51,0.00,CLR,,0.17,WeatherDisplay:10.37,2013-02-14 04:56:00,
2013-02-13 23:59:00,39.7,22.6,29.83,NNW,343,5.9,9.2,50,0.00,CLR,,0.17,WeatherDisplay:10.37,2013-02-14 04:59:00,